     2.11           OBSERVATION DATA    M (MIXED)           RINEX VERSION / TYPE
teqc 2009Oct19 20120718 10:59:38UTC                         PGM / RUN BY / DATE
MSXP|IAx86-PII|bcc32 5.0|MSWin95->XP|486/DX+                COMMENT
BIT 2 OF LLI FLAGS DATA COLLECTED UNDER A/S CONDITION       COMMENT
-Unknown-                                                   MARKER NAME
-Unknown- -Unknown-                                         OBSERVER / AGENCY
OEM_06688 JPS DELTA 3.1.1 Oct,05,2009                       REC # / TYPE / VERS
-Unknown- -Unknown-                                         ANT # / TYPE
        0.0000        0.0000        0.0000                  APPROX POSITION XYZ
        0.0000        0.0000        0.0000                  ANTENNA: DELTA H/E/N
     1     1                                                WAVELENGTH FACT L1/2
     7    L1    L2    C1    P1    P2    S1    S2            # / TYPES OF OBSERV
    15                                                      LEAP SECONDS
SNR is mapped to RINEX snr flag value [0-9]                 COMMENT
L1 & L2: min(max(int(snr_dBHz/6), 0), 9)                    COMMENT
pseudorange smoothing corrections not applied               COMMENT
rx board ID: 3VUX3BX3TWC943W1DWLC                           COMMENT
  2012     3    25    12     6    0.0000000     GPS         TIME OF FIRST OBS
                                                            END OF HEADER
 12  3 25 12  6  0.0000000  0 13G05R02R19G13G29G04G23G02G07G08G30G16
                                G10
 113189712.905 7  88199782.87747  21539287.110    21539286.600    21539294.614
        47.000          40.2504
 111699857.790 7  86877671.201 7  20932505.016    20932505.817    20932523.576
        44.750          44.750
 106991560.572 7  83215662.107 7  20956518.644    20956519.181    20956536.743
        46.500          44.750
 112263627.258 8  87478128.04846  21363050.726    21363050.738    21363058.916
        48.000          39.7504
 121265330.438 7  94492465.56247  23076024.314    23076024.683    23076033.080
        44.500          38.2504
 123918721.396 6                  23580949.563
        41.500
 124673539.386 6                  23724584.858
        39.250
 112184165.101 7  87416232.02846  21347935.960    21347935.643    21347942.139
        42.250          37.7504
 116239553.032 7  90576275.75447  22119650.437    22119650.796    22119658.537
        46.000          40.2504
 128108904.061 7  99825122.83845  24378312.711    24378312.768    24378322.278
        43.250          33.2504
 125091013.729 6                  23804026.154
        37.250
 124899072.692 6  97323956.84144  23767504.339    23767500.244    23767511.723
        36.500          24.0004
 109101195.876 7                  20761266.775
        47.000
 12  3 25 12  6 10.0000000  0 13G05R02R19G13G29G04G23G02G07G08G30G16
                                G10
 113172522.671 7  88186387.89747  21536015.709    21536015.472    21536022.799
        47.500          41.0004
 111736752.717 7  86906367.258 7  20939420.239    20939420.125    20939437.855
        47.750          46.000
 107006591.955 7  83227353.170 7  20959464.785    20959464.051    20959480.456
        45.750          44.250
 112291316.234 7  87499703.84946  21368319.734    21368319.428    21368327.757
        47.500          39.5004
 121273283.632 7  94498662.87747  23077537.684    23077537.471    23077546.231
        45.000          38.7504
 123961636.564 7  96593485.46945  23589114.468    23589114.465    23589125.458
        42.000          34.5004
 124713174.638 6  97179097.15744  23732127.564    23732126.557    23732134.099
        40.000          27.7504
 112207796.264 7  87434645.88046  21352432.410    21352432.491    21352438.636
        43.250          39.7504
 116223405.382 7  90563693.14647  22116577.747    22116577.639    22116585.937
        46.250          40.7504
 128077119.563 7  99800355.72545  24372264.395    24372264.201    24372275.074
        43.250          32.2504
 125108780.447 6                  23807409.716
        36.750
 124896302.847 6  97321798.59343  23766974.786    23766973.380    23766983.153
        36.750          21.7504
 109124775.014 7  85032293.36047  20765753.787    20765752.830    20765762.061
        47.250          44.0004
 12  3 25 12  6 20.0000000  0 13G05R02R19G13G29G04G23G02G07G08G30G16
                                G10
 113155412.722 7  88173055.46548  21532758.877    21532759.120    21532766.903
        45.500          39.7504
 111773640.735 7  86935057.882 8  20946332.251    20946333.135    20946350.565
        46.750          46.750
 107021744.753 7  83239138.670 7  20962431.286    20962431.136    20962448.353
        46.500          43.750
 112319005.806 8  87521280.15646  21373588.937    21373588.916    21373596.639
        49.500          40.5004
 121281330.339 7  94504933.02147  23079068.808    23079068.286    23079077.193
        44.000          36.0004
 124004583.211 7  96626950.38145  23597287.122    23597286.301    23597297.873
        42.000          33.5004
 124752763.092 6  97209945.27244  23739660.935    23739660.011    23739666.958
        38.250          28.7504
 112231516.464 7  87453129.17846  21356946.493    21356945.929    21356952.866
        43.500          40.5004
 116207278.218 7  90551126.59147  22113508.505    22113508.511    22113516.290
        46.750          38.5004
 128045339.138 7  99775591.77545  24366217.627    24366215.978    24366226.728
        43.000          31.5004
 125126580.589 5                  23810793.321
        35.250
 124893544.147 6  97319648.93843  23766450.799    23766446.650    23766459.248
        36.250          21.5004
 109148389.293 7  85050694.09347  20770247.613    20770246.279    20770255.368
        47.000          44.2504
 12  3 25 12  6 30.0000000  0 20G05R02R19G13R03G29R18G04G23R13G02G07
                                G08R20R11R04R12G30G16G10
 113138416.467 8  88159811.66448  21529525.547    21529525.142    21529532.751
        48.000          44.0004
 111810506.037 7  86963730.906 8  20953242.080    20953241.403    20953258.869
        47.000          47.000
 107037044.071 7  83251038.132 7  20965429.528    20965428.485    20965444.317
        47.250          44.500
 112346673.090 8  87542839.02946  21378854.447    21378853.257    21378861.771
        49.500          40.0004
 103342800.637 8  80377731.845 8  19305303.001    19305303.792    19305320.128
        50.750          49.500
 121289483.769 7  94511286.31347  23080620.591    23080620.549    23080628.580
        45.500          36.5004
 122334261.799 7  95148871.722 6  22917329.530    22917330.882    22917350.425
        42.500          39.500
 124047602.699 7  96660472.00245  23605473.585    23605473.186    23605483.802
        43.250          34.2504
 124792265.920 6  97240726.78444  23747177.205    23747178.285    23747186.712
        36.250          26.0004
 121622228.818 7  94595064.025 6  22775936.623    22775936.692    22775956.227
        43.750          40.500
 112255368.477 7  87471715.12646  21361485.177    21361485.015    21361491.217
        43.250          39.7504
 116191172.734 7  90538576.87647  22110442.971    22110443.906    22110452.100
        46.000          39.7504
 128013589.029 6  99750851.45145  24360175.399    24360174.446    24360185.419
        41.500          30.7504
 114838888.49913                  22493581.195
        22.000
 112864976.564 6  87783875.842 5  22106949.654    22106951.261    22106970.013
        38.500          32.000
 118156461.270 6  91899468.167 7  22064886.176    22064885.541    22064903.153
        41.500          44.250
 104855770.235 8  81554450.471 7  20538171.202    20538171.313    20538190.889
        49.750          45.750
 125144382.071 6                  23814183.095
        37.750
 124890755.732 6  97317476.12143  23765919.615    23765917.481    23765925.299
        36.750          22.5004
 109172047.205 7  85069128.81947  20774749.947    20774748.247    20774757.316
        47.500          44.0004
 12  3 25 12  6 40.0000000  0 20G05R02R19G13R03G29R18G04G23R13G02G07
                                G08R20R11R04R12G30G16G10
 113121535.617 7  88146657.78048  21526312.545    21526312.713    21526320.076
        47.000          42.2504
 111847302.111 7  86992350.017 7  20960137.517    20960137.313    20960154.182
        47.750          45.750
 107052534.419 7  83263086.214 7  20968462.645    20968462.486    20968479.083
        45.750          42.500
 112374317.022 8  87564379.82746  21384114.303    21384113.619    21384121.831
        49.750          39.7504
 103343004.097 8  80377890.099 8  19305342.274    19305341.650    19305357.884
        51.000          49.500
 121297839.113 7  94517797.00747  23082210.312    23082210.084    23082219.516
        43.750          37.7504
 122382040.621 7  95186032.972 6  22926280.337    22926280.748    22926301.836
        43.250          40.750
 124090541.474 7  96693930.80645  23613644.995    23613644.281    23613654.183
        44.000          33.2504
 124831712.155 6  97271464.04344  23754682.515    23754685.534    23754692.433
        36.500          25.5004
 121583500.706 7  94564942.180 7  22768684.173    22768683.960    22768704.004
        44.500          41.750
 112279261.707 7  87490333.23546  21366032.039    21366031.358    21366037.606
        44.500          39.2504
 116174996.538 7  90525972.00047  22107366.171    22107365.685    22107373.750
        45.500          39.7504
 127981714.791 7  99726014.42345  24354109.603    24354109.423    24354119.739
        42.500          31.2504
 114815034.604 6                  22488909.115
        37.750
 112900574.100 7  87811562.724 6  22113922.413    22113922.698    22113941.489
        43.500          37.000
 118124249.355 6  91874414.462 7  22058871.044    22058869.297    22058887.638
        39.250          43.750
 109703752.208 8  85325101.431 7  20536763.332    20536763.275    20536782.425
        49.000          45.500
 125162319.621 7  97529079.94245  23817595.486    23817595.009    23817607.223
        44.250          32.5004
 124888034.232 6  97315355.50644  23765401.472    23765399.116    23765409.611
        41.500          27.7504
 109195676.595 7  85087541.36146  20779245.629    20779244.498    20779253.768
        45.250          41.5004
 12  3 25 12  6 50.0000000  0 20G05R02R19G13R03G29R18G04G23R13G02G07
                                G08R20R11R04R12G30G16G10
 113104611.938 7  88133470.52748  21523092.183    21523091.908    21523099.585
        47.000          41.2504
 111884172.123 8  87021026.781 8  20967047.142    20967046.351    20967063.841
        49.000          46.750
 107068131.652 8  83275217.408 7  20971518.652    20971517.755    20971534.691
        48.250          43.750
 112402148.705 8  87586066.86546  21389410.373    21389409.954    21389418.450
        50.500          41.7504
 103343258.077 8  80378087.688 8  19305389.176    19305389.023    19305405.338
        50.750          48.000
 121306414.895 7  94524479.47047  23083842.322    23083841.840    23083850.843
        44.250          38.2504
 122429533.692 6  95222972.050 6  22935177.113    22935177.701    22935198.261
        40.000          39.250
 124133127.613 6  96727114.83243  23621748.841    23621747.411    23621759.777
        36.500          21.5004
 124871434.680 6  97302416.70445  23762242.862    23762241.875    23762250.467
        41.000          32.2504
 121544533.859 6  94534634.759 6  22761384.976    22761386.919    22761406.354
        38.250          37.000
 112302935.348 7  87508780.27746  21370537.446    21370536.489    21370543.139
        45.250          40.5004
 116158764.477 7  90513323.75447  22104276.944    22104276.378    22104284.901
        46.250          40.5004
 127949540.426 5  99700943.53843  24347986.848    24347985.140    24347996.978
        35.500          23.0004
 114791593.191 6  89282354.289 7  22484320.210    22484318.690    22484338.755
        39.250          41.250
 118207806.714 6  91939410.546 6  22120980.217    22120979.486    22120997.401
        41.000          35.000
 118092008.891 6  91849338.585 7  22052848.040    22052849.182    22052866.759
        41.250          43.500
 109696396.264 8  85319380.158 7  20535385.602    20535386.205    20535405.311
        49.750          46.000
 125180732.722 6  97543427.81344  23821099.166    23821098.995    23821108.948
        38.000          27.0004
 124885756.687 7  97313580.88745  23764967.519    23764967.103    23764977.032
        42.750          34.7504
 109219246.272 7  85105907.38046  20783731.303    20783729.415    20783738.951
        45.500          41.5004
 12  3 25 12  7  0.0000000  0 20G05R02R19G13R03G29R18G04G23R13G02G07
                                G08R20R11R04R12G30G16G10
 113087611.989 8  88120223.80748  21519856.871    21519857.291    21519864.720
        48.250          42.5004
 111921156.905 8  87049792.700 8  20973978.362    20973977.433    20973995.267
        50.000          47.000
 107083792.990 8  83287398.444 7  20974585.031    20974584.926    20974601.888
        48.750          44.250
 112430201.058 8  87607925.82546  21394749.137    21394748.190    21394756.566
        51.250          41.7504
 103343558.127 8  80378321.051 8  19305444.638    19305445.102    19305461.453
        50.750          48.250
 121315161.639 7  94531295.11947  23085507.244    23085506.366    23085515.491
        44.000          37.7504
 122476707.375 6  95259662.661 6  22944014.719    22944014.839    22944035.714
        41.000          40.000
 124175376.599 6  96760036.09243  23629787.359    23629785.827    23629798.664
        38.500          23.7504
 124911470.624 6  97333613.49545  23769861.880    23769860.456    23769869.621
        40.500          32.0004
 121505367.871 6  94504172.365 6  22754053.063    22754051.573    22754072.630
        38.500          37.250
 112326379.886 7  87527048.71946  21374998.094    21374997.899    21375004.659
        46.250          41.5004
 116142517.893 8  90500664.07748  22101184.672    22101184.846    22101193.636
        48.000          41.5004
 127917099.655 6  99675665.00543  24341811.990    24341812.734    24341822.741
        36.000          20.2504
 114768539.082 6  89264423.327 7  22479801.744    22479802.718    22479823.092
        40.750          41.750
 118245967.488 6  91969091.113 5  22128120.470    22128120.797    22128140.544
        41.000          34.500
 118059689.946 7  91824201.624 7  22046812.984    22046814.345    22046831.382
        42.500          44.250
 109689244.062 8  85313817.322 7  20534047.865    20534046.960    20534066.513
        50.750          46.250
 125199609.315 6  97558136.84844  23824691.519    23824691.261    23824702.794
        39.000          27.2504
 124883936.380 7  97312162.46945  23764622.380    23764620.045    23764630.256
        43.750          35.0004
 109242780.169 7  85124245.46847  20788209.261    20788207.915    20788216.849
        46.750          42.5004
 12  3 25 12  7 10.0000000  0 20G05R02R19G13R03G29R18G04G23R13G02G07
                                G08R20R11R04R12G30G16G10
 113070661.763 8  88107015.83548  21516631.902    21516631.368    21516639.067
        48.500          42.5004
 111958164.430 8  87078576.309 8  20980912.813    20980912.502    20980930.669
        50.000          47.000
 107099578.577 8  83299676.105 7  20977677.879    20977677.039    20977693.795
        49.000          44.000
 112458321.435 8  87629837.78647  21400099.995    21400099.446    21400107.394
        51.500          42.0004
 103343930.230 8  80378610.457 8  19305513.833    19305514.462    19305531.158
        50.750          48.500
 121324052.322 7  94538222.90147  23087198.076    23087198.235    23087206.728
        43.750          37.2504
 122523854.007 6  95296332.209 6  22952843.700    22952846.503    22952867.533
        41.750          40.000
 124217536.323 6  96792887.78344  23637812.521    23637809.514    23637822.219
        39.000          24.2504
 124951570.110 6  97364859.79945  23777493.358    23777491.763    23777499.561
        41.750          32.5004
 121466136.033 6  94473658.735 6  22746703.870    22746705.890    22746726.171
        39.250          37.250
 112349818.246 7  87545312.36246  21379458.889    21379458.070    21379464.510
        46.250          41.0004
 116126274.010 8  90488006.51348  22098093.887    22098093.797    22098101.894
        48.250          41.5004
 127884569.227 6  99650316.64143  24335624.565    24335623.018    24335633.403
        36.500          20.2504
 120185641.974 6  93477725.791 7  22475319.937    22475322.284    22475342.304
        41.750          42.250
 118284296.926 6  91998902.869 6  22135292.468    22135293.556    22135310.093
        40.000          34.500
 118027423.165 7  91799105.223 7  22040787.563    22040788.765    22040806.141
        43.250          44.500
 109682182.880 8  85308325.286 7  20532725.100    20532725.334    20532744.617
        50.750          46.250
 125218672.323 6  97572991.13544  23828320.045    23828318.013    23828329.015
        39.750          27.7504
 124882276.122 7  97310868.75945  23764305.653    23764304.594    23764314.460
        43.500          35.7504
 109266322.859 7  85142590.40747  20792689.462    20792688.232    20792697.262
        47.250          43.0004
 12  3 25 12  7 20.0000000  0 20G05R02R19G13R03G29R18G04G23R13G02G07
                                G08R20R11R04R12G30G16G10
 113053761.574 8  88093846.85648  21513415.270    21513415.512    21513423.154
        48.750          42.7504
 111995205.950 8  87107386.362 8  20987854.475    20987854.220    20987872.040
        50.500          47.000
 112233088.023 8  87292405.856 7  20980791.808    20980791.811    20980807.451
        48.250          44.250
 112486512.117 8  87651804.53147  21405464.364    21405464.104    21405472.018
        51.500          42.0004
 103344376.890 8  80378957.845 8  19305598.788    19305598.087    19305614.326
        50.750          48.500
 121333068.282 7  94545248.30247  23088913.588    23088913.468    23088922.420
        43.500          37.2504
 122570990.178 7  95332993.618 6  22961675.472    22961677.507    22961698.358
        42.250          40.500
 124259638.822 6  96825694.88844  23645823.656    23645821.944    23645834.460
        39.500          24.5004
 124991729.545 6  97396152.83145  23785134.612    23785132.900    23785141.513
        40.250          32.2504
 121426870.156 6  94443118.644 6  22739351.561    22739352.488    22739372.418
        39.750          36.750
 112373269.270 7  87563585.87346  21383920.958    21383920.661    21383927.250
        45.750          41.2504
 116110053.474 8  90475367.13548  22095007.841    22095006.909    22095015.471
        48.250          41.5004
 127851982.223 6  99624924.20443  24329420.893    24329422.431    24329431.806
        37.000          20.2504
 120161835.021 6  93459209.318 7  22470869.005    22470869.236    22470890.036
        41.250          42.000
 118322773.887 6  92028829.369 6  22142495.515    22142494.784    22142513.251
        40.500          35.000
 117995202.968 7  91774045.078 7  22034770.564    22034771.511    22034788.563
        43.500          44.500
 109675220.434 8  85302910.044 8  20531422.079    20531421.687    20531441.374
        50.500          46.250
 125237896.266 6  97587970.82344  23831977.588    23831977.237    23831986.897
        40.500          27.5004
 124880758.936 7  97309686.51945  23764016.886    23764016.113    23764025.838
        43.500          35.5004
 109289890.380 7  85160954.69447  20797174.204    20797173.032    20797181.876
        47.250          42.7504
 12  3 25 12  7 30.0000000  0 20G05R02R19G13R03G29R18G04G23R13G02G07
                                G08R20R11R04R12G30G16G10
 113036920.998 8  88080724.32848  21510211.546    21510210.731    21510218.442
        48.500          42.5004
 112032273.638 8  87136216.761 8  20994800.585    20994800.576    20994818.710
        50.250          46.750
 112249893.324 8  87305476.636 7  20983933.039    20983933.147    20983950.448
        48.250          44.000
 112514780.767 8  87673832.03647  21410843.966    21410843.507    21410851.581
        52.000          42.2504
 103344904.997 8  80379368.586 8  19305696.907    19305696.661    19305713.270
        50.500          48.500
 121342248.191 7  94552401.47647  23090660.116    23090659.927    23090669.553
        43.500          37.2504
 122618098.499 7  95369633.395 6  22970502.732    22970502.189    22970522.617
        42.000          40.250
 124301642.279 6  96858424.81144  23653816.108    23653813.751    23653825.656
        39.750          24.5004
 125031964.976 6  97427505.06645  23792790.448    23792790.043    23792798.464
        40.750          32.2504
 121387530.910 6  94412521.467 6  22731984.006    22731985.001    22732004.050
        39.750          37.000
 112396711.977 7  87581852.90146  21388382.475    21388381.764    21388388.324
        45.750          41.0004
 116093834.930 8  90462729.31648  22091920.399    22091920.699    22091929.183
        49.000          41.7504
 127819296.619 6  99599454.95343  24323202.304    24323201.210    24323213.514
        37.250          20.5004
 120138237.749 6  93440855.919 7  22466458.201    22466456.561    22466478.685
        40.250          41.500
 118361443.270 6  92058905.504 6  22149729.651    22149731.015    22149749.938
        40.750          35.500
 117963048.541 7  91749036.081 7  22028766.111    22028767.058    22028784.338
        43.750          44.500
 109668357.063 8  85297571.863 8  20530138.155    20530136.842    20530156.224
        50.500          46.250
 125257332.053 6  97603115.58744  23835675.300    23835674.851    23835687.826
        40.000          27.2504
 124879423.358 7  97308645.80446  23763762.207    23763761.739    23763771.608
        44.000          36.2504
 109313467.439 7  85179326.41747  20801660.388    20801659.330    20801668.270
        46.750          42.7504
 12  3 25 12  7 40.0000000  0 20G05R02R19G13R03G29R18G04G23R13G02G07
                                G08R20R11R04R12G30G16G10
 113020128.650 8  88067639.38048  21507015.630    21507015.567    21507023.026
        48.250          42.7504
 112069372.366 8  87165071.308 8  21001753.836    21001752.907    21001770.868
        50.500          46.750
 112266814.148 8  87318637.265 7  20987096.860    20987096.470    20987113.181
        48.250          44.000
 112543114.507 8  87695910.25747  21416235.473    21416235.056    21416243.423
        52.500          42.5004
 103345504.856 8  80379835.136 8  19305809.266    19305808.769    19305825.080
        50.750          48.500
 121351544.534 7  94559645.38547  23092429.143    23092430.060    23092438.089
        43.750          37.5004
 122665199.402 7  95406267.381 6  22979327.351    22979326.649    22979346.343
        42.750          40.000
 124343595.377 6  96891115.48444  23661799.272    23661798.826    23661808.647
        40.000          24.0004
 125072251.904 6  97458897.44845  23800457.046    23800456.609    23800464.685
        39.500          32.5004
 121348163.557 6  94381902.445 6  22724613.246    22724613.018    22724632.450
        40.000          36.500
 112420170.594 7  87600132.32746  21392845.938    21392845.902    21392852.365
        45.250          41.2504
 116077641.908 8  90450111.37648  22088839.863    22088839.519    22088847.622
        49.000          41.7504
 127786561.167 6  99573946.81643  24316973.343    24316972.033    24316983.545
        37.500          20.5004
 120114784.258 6  93422614.293 7  22462072.516    22462071.152    22462091.256
        40.000          42.000
 118400247.332 6  92089086.406 6  22156992.675    22156992.351    22157012.069
        41.750          36.000
 117930938.211 7  91724061.376 7  22022770.981    22022770.513    22022788.126
        43.000          44.500
 109661589.705 8  85292308.359 8  20528870.147    20528870.186    20528889.397
        51.000          46.500
 125276915.132 6  97618375.10644  23839402.725    23839400.713    23839414.243
        39.500          27.0004
 124878218.979 7  97307707.32346  23763533.231    23763532.446    23763542.348
        44.500          37.0004
 109337069.509 7  85197717.62147  20806152.370    20806150.596    20806160.150
        46.750          42.7504
 12  3 25 12  7 50.0000000  0 20G05R02R19G13R03G29R18G04G23R13G02G07
                                G08R20R11R04R12G30G16G10
 113003392.721 8  88054598.37348  21503830.977    21503830.665    21503838.510
        48.750          42.5004
 112106567.268 8  87194000.644 8  21008722.053    21008723.423    21008741.339
        50.750          46.500
 112283781.699 8  87331834.226 7  20990269.054    20990268.038    20990285.657
        48.250          44.500
 112571496.456 8  87718026.05746  21421636.315    21421636.015    21421644.127
        50.750          40.5004
 103346188.883 8  80380367.153 8  19305937.026    19305936.534    19305952.894
        51.000          48.250
 121360799.939 7  94566857.36747  23094190.900    23094191.026    23094199.669
        44.250          37.7504
 122712446.743 7  95443015.282 6  22988178.291    22988177.062    22988196.765
        43.000          39.250
 124385768.180 6  96923977.38144  23669823.400    23669823.988    23669833.299
        40.000          24.0004
 125112515.071 6  97490271.35945  23808118.429    23808117.787    23808125.962
        39.500          31.7504
 121309014.548 6  94351453.249 6  22717281.764    22717281.710    22717300.270
        38.750          37.000
 112443813.670 7  87618555.48746  21397345.523    21397345.016    21397351.219
        45.750          41.7504
 116061621.558 8  90437627.99948  22085791.202    22085790.785    22085799.161
        49.250          42.7504
 127754039.421 6  99548605.23643  24310784.295    24310782.979    24310795.828
        36.250          20.0004
 120091224.669 6  93404290.162 7  22457664.928    22457665.129    22457685.404
        40.000          43.500
 118438967.499 7  92119202.057 6  22164239.492    22164238.944    22164256.757
        42.000          36.500
 117898832.438 7  91699090.226 7  22016775.168    22016775.105    22016792.718
        44.250          44.500
 109654945.039 8  85287140.284 8  20527626.377    20527626.221    20527645.848
        51.500          47.000
 125296396.073 6  97633555.03544  23843111.056    23843108.519    23843120.670
        41.500          29.5004
 124876956.268 7  97306723.39745  23763292.951    23763292.219    23763302.805
        44.000          35.5004
 109360817.553 7  85216222.59347  20810671.061    20810669.571    20810679.267
        45.750          43.0004
 12  3 25 12  8  0.0000000  0 20G05R02R19G13R03G29R18G04G23R13G02G07
                                G08R20R11R04R12G30G16G10
 112986717.947 7  88041604.97948  21500657.446    21500657.799    21500665.198
        47.500          42.0004
 112143902.057 7  87223038.694 7  21015719.305    21015720.304    21015737.461
        47.750          45.750
 112300707.265 7  87344998.459 7  20993433.486    20993432.110    20993448.917
        45.750          43.000
 112599867.965 8  87740133.61646  21427035.550    21427034.606    21427043.195
        49.000          39.7504
 103346953.987 8  80380962.147 8  19306079.319    19306079.409    19306095.829
        50.500          49.250
 121369814.275 7  94573881.43047  23095906.888    23095906.481    23095915.052
        43.000          35.5004
 122760031.579 7  95480025.641 6  22997091.730    22997091.208    22997111.948
        42.500          40.250
 124428478.787 7  96957258.24645  23677951.859    23677951.817    23677962.801
        44.500          33.7504
 125152619.523 5  97521521.41744  23815751.237    23815750.170    23815759.188
        35.750          24.5004
 121270358.835 7  94321387.658 7  22710042.649    22710041.896    22710062.567
        43.500          40.750
 112467841.747 7  87637278.60546  21401917.730    21401917.565    21401923.803
        44.500          41.0004
 116045921.463 7  90425394.09647  22082803.161    22082803.182    22082811.673
        45.500          39.2504
 127722032.111 7  99523664.44645  24304693.808    24304691.835    24304704.342
        43.250          31.7504
 120067230.726 6  93385628.155 6  22453179.949    22453177.793    22453198.590
        39.000          40.750
 118477300.083 6  92149016.267 5  22171410.786    22171413.403    22171432.416
        38.750          33.500
 117866681.747 7  91674084.065 7  22010770.217    22010771.344    22010788.792
        42.000          43.250
 109648417.119 8  85282062.926 7  20526405.283    20526404.300    20526423.921
        49.750          45.250
 125315437.981 6  97648392.80244  23846732.767    23846731.967    23846742.424
        39.250          29.0004
 124875363.677 5  97305482.31045  23762990.073    23762988.892    23762998.986
        34.000          30.7504
 109384835.061 7  85234937.42447  20815241.295    20815240.540    20815249.534
        46.500          43.7504
 12  3 25 12  8 10.0000000  0 20G05R02R19G13R03G29R18G04G23R13G02G07
                                G08R20R11R04R12G30G16G10
 112970100.182 8  88028656.02948  21497495.573    21497495.681    21497503.074
        48.000          42.2504
 112181459.915 8  87252250.303 7  21022757.518    21022758.300    21022775.697
        48.250          46.250
 112317518.465 7  87358073.790 7  20996575.066    20996575.200    20996591.575
        46.250          44.750
 112628233.795 8  87762236.81146  21432433.613    21432433.037    21432440.655
        48.750          38.5004
 103347813.392 8  80381630.538 8  19306240.668    19306240.251    19306256.575
        50.500          48.500
 121378436.488 7  94580599.97947  23097547.820    23097547.170    23097556.005
        43.000          33.7504
 122808076.653 7  95517393.959 6  23006089.506    23006091.856    23006111.738
        43.500          39.250
 124471973.819 7  96991150.42245  23686229.147    23686228.496    23686238.932
        42.500          31.0004
 125192524.771 6  97552616.36345  23823344.810    23823344.345    23823351.441
        41.000          32.2504
 121232431.578 7  94291888.643 7  22702940.146    22702940.089    22702959.386
        43.750          43.500
 112492402.262 7  87656416.63046  21406591.674    21406591.026    21406597.202
        43.750          40.5004
 116030689.634 8  90413525.06847  22079905.059    22079905.167    22079912.946
        48.000          41.7504
 127690786.279 6  99499317.00145  24298747.769    24298745.539    24298757.869
        41.000          31.0004
 120042582.711 5  93366457.540 6  22448571.917    22448569.156    22448588.678
        32.750          37.000
 118515062.222 5  92178386.749 5  22178478.345    22178477.356    22178497.106
        35.000          33.250
 117834432.163 7  91649001.017 7  22004749.593    22004749.278    22004766.360
        45.500          44.000
 109642047.258 8  85277108.575 7  20525212.445    20525211.929    20525231.257
        49.000          46.250
 125333826.681 6  97662721.55143  23850232.859    23850231.480    23850241.343
        38.000          21.7504
 124873289.539 6  97303866.02444  23762596.611    23762595.349    23762604.867
        38.750          26.5004
 109409243.294 7  85253956.81347  20819886.355    20819885.314    20819894.308
        46.750          43.5004
 12  3 25 12  8 20.0000000  0 20G05R02R19G13R03G29R18G04G23R13G02G07
                                G08R20R11R04R12G30G16G10
 112953543.926 8  88015755.04248  21494345.258    21494344.923    21494352.337
        48.500          42.5004
 112219187.519 8  87281593.974 7  21029828.435    21029828.573    21029846.149
        49.250          46.000
 112334272.314 7  87371104.552 7  20999707.429    20999706.937    20999724.127
        46.750          45.000
 112656593.177 8  87784335.00546  21437830.186    21437829.278    21437837.426
        49.750          38.7504
 103348760.789 8  80382367.396 8  19306416.889    19306417.147    19306433.434
        50.500          48.750
 121386779.710 7  94587101.15447  23099135.527    23099135.078    23099143.322
        43.750          34.0004
 122856494.506 7  95555052.256 6  23015163.048    23015162.230    23015182.580
        44.250          40.000
 124516077.666 7  97025517.04945  23694621.603    23694620.910    23694632.317
        42.250          30.5004
 125232265.625 6  97583583.24745  23830907.053    23830905.917    23830914.242
        41.500          32.7504
 121195063.766 7  94262824.828 7  22695942.891    22695941.718    22695961.418
        44.500          42.750
 112517392.710 7  87675889.70546  21411347.725    21411346.844    21411353.086
        44.750          41.2504
 116015819.174 8  90401937.70847  22077075.723    22077075.441    22077083.094
        48.500          42.0004
 127660124.137 6  99475424.45945  24292913.436    24292912.120    24292923.461
        41.500          30.0004
 120017444.410 5  93346905.556 6  22443870.101    22443866.617    22443888.574
        34.250          37.750
 118552387.660 5  92207417.623 5  22185465.695    22185463.446    22185483.035
        35.750          33.250
 117802121.401 7  91623870.434 7  21998714.408    21998715.721    21998732.198
        46.000          44.750
 109635805.100 8  85272253.553 8  20524044.319    20524043.563    20524062.792
        50.000          47.000
 125351720.014 6  97676664.38643  23853637.581    23853635.138    23853646.224
        38.750          22.0004
 124870846.740 6  97301962.55444  23762129.972    23762128.859    23762137.266
        39.750          26.2504
 109433959.475 7  85273216.16647  20824589.724    20824588.632    20824597.602
        47.500          43.7504
 12  3 25 12  8 30.0000000  0 20G05R02R19G13R03G29R18G04G23R13G02G07
                                G08R20R11R04R12G30G16G10
 112937050.436 8  88002902.96548  21491206.479    21491206.314    21491213.704
        49.250          42.2504
 112257030.135 8  87311027.108 7  21036919.585    21036920.076    21036937.977
        48.500          45.500
 112351060.385 7  87384161.935 7  21002846.301    21002845.339    21002862.079
        46.750          45.250
 112684986.860 8  87806459.93946  21443233.097    21443232.590    21443240.412
        50.500          39.0004
 103349797.100 8  80383173.409 8  19306610.048    19306610.938    19306627.187
        51.000          49.000
 121395039.501 7  94593537.35247  23100707.375    23100706.994    23100715.209
        44.500          34.5004
 122905112.820 7  95592866.465 6  23024269.019    23024270.524    23024290.239
        43.750          38.250
 124560487.273 6  97060121.88245  23703072.341    23703071.355    23703083.542
        40.250          30.2504
 125271952.566 6  97614508.08045  23838459.305    23838457.974    23838466.128
        40.000          31.7504
 121157984.975 7  94233985.803 7  22688999.299    22688997.884    22689017.205
        45.250          43.750
 112542627.315 7  87695553.01246  21416149.411    21416148.716    21416155.077
        45.750          41.5004
 116001157.134 8  90390512.75147  22074285.479    22074285.122    22074293.010
        48.000          41.0004
 127629753.414 6  99451758.99444  24287131.854    24287132.250    24287143.492
        40.250          29.0004
 119992124.566 5  93327212.353 6  22439129.291    22439132.978    22439153.220
        33.250          38.000
 118589552.237 5  92236323.375 5  22192418.032    22192417.408    22192438.262
        35.000          33.250
 117769804.356 7  91598734.960 7  21992679.960    21992680.221    21992697.429
        45.750          44.750
 109629680.628 8  85267490.062 8  20522896.569    20522896.935    20522916.458
        50.250          47.000
 125369428.323 6  97690463.05543  23857006.313    23857004.817    23857015.469
        40.000          22.2504
 124868278.432 6  97299961.26944  23761642.263    23761640.558    23761649.623
        40.750          26.7504
 109458859.690 8  85292618.92047  20829328.228    20829326.870    20829336.050
        48.750          43.7504
 12  3 25 12  8 40.0000000  0 20G05R02R19G13R03G29R18G04G23R13G02G07
                                G08R20R11R04R12G30G16G10
 112920622.754 8  87990102.16448  21488080.241    21488080.061    21488087.828
        49.750          42.2504
 112294979.935 8  87340543.605 7  21044032.098    21044031.537    21044049.800
        48.000          45.750
 112367899.656 7  87397259.133 7  21005993.732    21005993.651    21006009.960
        46.750          45.000
 112713420.899 8  87828616.32046  21448643.622    21448643.502    21448651.312
        50.250          38.7504
 103350924.759 8  80384050.469 8  19306821.450    19306821.474    19306837.611
        51.000          49.000
 121403248.378 7  94599933.86147  23102269.719    23102269.135    23102277.190
        44.250          35.0004
 122953907.996 7  95630818.217 6  23033411.595    23033411.544    23033430.716
        43.250          39.250
 124605158.280 6  97094930.42245  23711573.832    23711572.333    23711582.916
        40.500          30.5004
 125311602.024 6  97645403.72045  23846003.831    23846003.597    23846011.434
        39.000          32.2504
 121121154.484 7  94205339.894 7  22682101.110    22682100.313    22682120.369
        44.500          44.000
 112568080.694 7  87715386.79746  21420992.801    21420992.445    21420998.506
        47.000          41.5004
 115986680.251 8  90379232.06347  22071530.404    22071530.288    22071538.544
        48.000          41.0004
 127599630.435 6  99428286.56244  24281402.608    24281399.523    24281412.033
        40.250          29.5004
 119966671.829 5  93307415.797 6  22434370.550    22434374.226    22434393.314
        34.000          38.000
 118626597.827 5  92265136.584 5  22199353.319    22199351.665    22199370.471
        35.750          33.750
 117737492.245 7  91573603.319 7  21986646.502    21986645.864    21986663.534
        45.750          45.000
 109623671.953 8  85262816.643 8  20521772.204    20521772.066    20521791.411
        50.750          47.000
 125386999.345 6  97704154.78843  23860351.526    23860348.624    23860358.727
        39.750          22.5004
 124865621.234 6  97297890.70044  23761136.436    23761136.142    23761145.070
        40.500          26.7504
 109483926.512 8  85312151.49847  20834098.001    20834096.868    20834106.039
        49.750          43.7504
 12  3 25 12  8 50.0000000  0 20G05R02R19G13R03G29R18G04G23R13G02G07
                                G08R20R11R04R12G30G16G10
 112904258.329 8  87977350.66248  21484966.209    21484966.236    21484973.452
        50.000          42.2504
 112333010.025 8  87370122.545 7  21051159.115    21051158.749    21051176.083
        48.000          45.750
 112384823.584 7  87410422.178 7  21009158.353    21009157.262    21009173.754
        47.000          45.250
 112741906.811 8  87850813.11946  21454064.685    21454064.136    21454072.591
        50.500          38.5004
 103352139.615 8  80384995.353 8  19307048.165    19307048.467    19307064.653
        51.000          49.000
 121411481.482 7  94606349.25947  23103836.228    23103835.410    23103843.705
        44.750          34.7504
 123002810.204 6  95668853.232 6  23042571.798    23042571.136    23042592.301
        41.250          39.250
 124649966.894 6  97129846.18745  23720099.798    23720098.506    23720111.013
        40.750          30.5004
 125351253.638 6  97676301.05645  23853548.957    23853548.387    23853557.759
        40.000          32.5004
 121084461.018 7  94176800.547 7  22675230.209    22675229.201    22675249.327
        44.250          43.750
 112593675.419 8  87735330.72846  21425863.676    21425862.537    21425869.066
        48.500          41.7504
 115972323.423 8  90368044.92648  22068798.801    22068798.123    22068806.475
        48.500          41.2504
 127569635.555 7  99404913.95145  24275694.203    24275691.310    24275703.133
        42.000          31.5004
 119941206.014 5  93287610.064 6  22429613.024    22429609.391    22429630.814
        33.750          37.750
 118663630.086 6  92293939.422 5  22206281.808    22206282.468    22206301.678
        36.000          33.500
 117705204.951 7  91548490.982 7  21980616.798    21980616.432    21980633.901
        46.000          45.000
 109617770.584 8  85258226.677 8  20520668.314    20520666.761    20520686.925
        51.000          46.750
 125404553.223 6  97717833.12943  23863692.018    23863691.253    23863699.594
        40.500          22.5004
 124862967.968 6  97295823.22944  23760631.399    23760629.906    23760639.416
        40.250          26.5004
 109509105.987 8  85331771.85347  20838890.211    20838888.388    20838897.358
        50.750          44.0004
 12  3 25 12  9  0.0000000  0 20G05R02R19G13R03G29R18G04G23R13G02G07
                                G08R20R11R04R12G30G16G10
 112887959.581 8  87964650.33948  21481864.886    21481864.904    21481872.249
        50.000          42.0004
 112371117.427 8  87399761.612 7  21058299.635    21058299.763    21058317.625
        48.250          46.000
 112401841.316 7  87423658.193 7  21012338.840    21012338.405    21012355.049
        46.750          45.250
 112770448.806 8  87873053.62646  21459496.277    21459495.986    21459503.088
        50.250          38.5004
 103353444.037 8  80386009.897 8  19307291.090    19307292.226    19307308.427
        51.000          49.000
 121419755.346 7  94612796.41147  23105410.342    23105410.339    23105418.548
        44.000          34.7504
 123051808.402 7  95706962.913 6  23051749.546    23051751.144    23051772.324
        42.500          39.750
 124694891.583 6  97164852.39045  23728649.594    23728647.327    23728658.468
        41.250          31.2504
 125390916.352 6  97707207.03245  23861096.849    23861096.933    23861104.962
        39.750          32.2504
 121047885.609 7  94148353.030 7  22668381.057    22668379.861    22668399.968
        44.750          43.000
 112619399.486 8  87755375.43946  21430758.064    21430758.079    21430764.548
        49.000          41.7504
 115958076.389 8  90356943.34948  22066087.657    22066087.145    22066095.143
        48.750          41.7504
 127539747.809 7  99381624.84545  24270006.792    24270004.666    24270016.133
        42.500          32.2504
 119915751.731 5  93267812.322 6  22424847.319    22424849.870    22424871.695
        33.750          37.750
 118700670.835 5  92322748.856 5  22213215.552    22213212.092    22213229.804
        35.750          33.250
 117672948.596 7  91523402.717 7  21974593.068    21974592.882    21974610.267
        46.000          44.750
 109611976.902 8  85253720.473 7  20519582.864    20519582.613    20519602.186
        51.500          46.500
 125422114.260 6  97731517.02343  23867033.618    23867033.675    23867043.446
        40.000          22.7504
 124860337.865 6  97293773.79544  23760130.038    23760129.873    23760138.897
        40.750          25.7504
 109534390.492 8  85351474.05347  20843701.145    20843699.820    20843708.808
        51.000          44.0004
 12  3 25 12  9 10.0000000  0 20G05R02R19G13R03G29R18G04G23R13G02G07
                                G08R20R11R04R12G30G16G10
 112871730.285 8  87952004.13348  21478776.281    21478776.344    21478783.913
        50.000          42.0004
 112409315.604 8  87429471.282 7  21065459.002    21065458.325    21065475.982
        48.000          45.750
 112418950.068 7  87436964.995 7  21015537.676    21015536.558    21015553.403
        46.750          45.250
 112799052.699 8  87895342.36246  21464939.381    21464939.012    21464946.468
        50.250          38.5004
 103354844.285 8  80387098.971 8  19307553.456    19307553.657    19307569.816
        51.000          48.750
 121428059.922 7  94619267.50247  23106990.887    23106990.201    23106998.679
        44.000          34.5004
 123100917.267 7  95745158.643 6  23060951.504    23060950.923    23060971.117
        42.500          40.250
 124739960.045 6  97199970.63445  23737226.494    23737224.722    23737236.186
        41.750          31.7504
 125430591.868 6  97738122.96745  23868647.000    23868646.760    23868655.178
        40.500          32.7504
 121011455.172 7  94120018.284 7  22661558.743    22661558.003    22661577.732
        45.250          42.750
 112645271.225 8  87775535.22146  21435681.783    21435681.196    21435687.638
        49.750          41.5004
 115943958.141 8  90345942.12548  22063400.758    22063400.669    22063408.634
        48.500          41.7504
 127509995.263 7  99358441.08945  24264344.819    24264343.443    24264353.297
        43.250          31.2504
 119890293.591 5  93248011.539 6  22420093.222    22420090.485    22420110.047
        34.000          38.000
 118737707.543 5  92351555.150 5  22220142.011    22220142.586    22220162.562
        35.500          33.500
 117640721.868 7  91498337.503 7  21968574.452    21968575.049    21968592.461
        46.000          45.000
 109606300.238 8  85249305.283 7  20518521.020    20518520.040    20518539.197
        51.250          46.250
 125439666.830 6  97745194.36543  23870373.199    23870373.537    23870383.883
        40.000          22.5004
 124857721.668 6  97291735.19244  23759633.075    23759633.216    23759641.128
        41.250          26.7504
 109559796.576 8  85371270.99547  20848535.766    20848534.714    20848543.579
        51.000          44.0004
 12  3 25 12  9 20.0000000  0 20G05R02R19G13R03G29R18G04G23R13G02G07
                                G08R20R11R04R12G30G16G10
 112855569.433 8  87939411.25548  21475700.602    21475700.974    21475708.277
        49.250          42.0004
 112447562.658 7  87459218.978 7  21072626.266    21072625.856    21072643.873
        47.750          45.250
 112436197.947 7  87450380.005 7  21018761.608    21018761.326    21018778.121
        47.000          45.250
 112827732.576 8  87917690.30446  21470396.791    21470396.206    21470404.546
        50.250          39.0004
 103356335.453 8  80388258.766 8  19307831.609    19307832.194    19307848.311
        51.250          49.000
 121436501.731 7  94625845.51647  23108597.340    23108596.162    23108605.120
        44.250          34.7504
 123150039.958 7  95783365.159 6  23070152.258    23070153.100    23070173.825
        42.500          40.000
 124784997.429 6  97235064.67145  23745795.435    23745794.727    23745805.106
        41.000          30.2504
 125470331.235 6  97769088.70545  23876209.357    23876209.483    23876217.566
        41.250          32.0004
 120975011.971 7  94091673.593 7  22654733.896    22654733.299    22654752.816
        43.750          43.500
 112671182.493 8  87795725.81246  21440612.584    21440611.984    21440618.451
        49.250          41.5004
 115929876.415 8  90334969.35748  22060720.599    22060720.818    22060729.065
        48.500          41.0004
 127480208.765 7  99335230.85645  24258676.034    24258675.851    24258686.827
        42.750          31.5004
 119864998.036 5  93228337.231 6  22415359.739    22415359.613    22415379.927
        33.750          37.500
 118774887.551 5  92380472.929 5  22227103.875    22227099.525    22227120.181
        35.250          33.000
 117608556.394 7  91473319.927 7  21962567.412    21962568.362    21962585.142
        45.750          45.250
 109600727.700 8  85244971.080 8  20517476.774    20517476.828    20517496.297
        51.000          46.500
 125457378.224 6  97758995.44743  23873743.606    23873743.321    23873753.215
        40.000          22.0004
 124855247.228 6  97289807.09444  23759162.026    23759161.541    23759169.761
        41.750          27.0004
 109585247.022 8  85391102.50047  20853378.796    20853377.549    20853386.570
        51.000          44.0004
 12  3 25 12  9 30.0000000  0 20G05R02R19G13R03G29R18G04G23R13G02G07
                                G08R20R11R04R12G30G16G10
 112839477.828 8  87926872.34148  21472638.968    21472638.675    21472646.457
        49.750          43.0004
 112485842.507 8  87488992.141 7  21079799.934    21079799.472    21079817.649
        49.250          46.250
 112453614.605 7  87463926.288 7  21022017.738    21022017.108    21022033.630
        47.000          45.250
 112856506.066 8  87940111.19146  21475871.888    21475871.439    21475879.368
        50.000          39.0004
 103357918.715 8  80389490.186 8  19308127.609    19308128.263    19308144.290
        51.000          49.000
 121445146.401 7  94632581.60247  23110241.887    23110241.935    23110250.405
        44.000          34.5004
 123199118.939 7  95821537.656 6  23079346.950    23079347.189    23079367.620
        43.000          38.500
 124829904.061 7  97270056.82045  23754341.169    23754340.096    23754351.431
        42.250          30.7504
 125510175.783 7  97800136.33945  23883791.540    23883790.914    23883800.093
        42.000          31.7504
 120938469.749 7  94063251.913 7  22647891.484    22647889.907    22647909.235
        44.000          42.500
 112697070.500 8  87815898.28446  21445539.097    21445538.255    21445544.571
        49.250          41.2504
 115915784.690 8  90323988.78848  22058039.534    22058039.276    22058047.484
        49.000          42.2504
 127450294.036 6  99311920.74645  24252982.714    24252982.942    24252994.047
        41.500          30.7504
 119839970.264 5  93208871.197 6  22410678.744    22410679.868    22410699.786
        34.750          37.750
 118812307.394 5  92409577.224 5  22234098.630    22234103.109    22234122.952
        35.750          32.750
 117576472.247 7  91448365.605 7  21956575.814    21956576.848    21956593.774
        46.250          45.250
 109595261.419 8  85240719.543 8  20516451.550    20516453.412    20516472.796
        50.750          46.500
 125475356.084 6  97773004.17443  23877165.731    23877162.700    23877172.941
        40.000          22.2504
 124853000.621 7  97288056.49844  23758735.371    23758733.269    23758742.875
        42.000          27.0004
 109610701.388 8  85410937.05747  20858222.780    20858221.524    20858230.284
        51.250          43.7504
 12  3 25 12  9 40.0000000  0 21G05R02R19G13R03G29R18G04G23R13G02G26
                                G07G08R20R11R04R12G30G16G10
 112823457.614 8  87914389.06048  21469590.430    21469590.382    21469597.934
        49.500          42.5004
 112524033.971 8  87518696.609 8  21086957.299    21086956.889    21086974.537
        50.000          46.750
 112471361.176 7  87477729.158 7  21025334.468    21025334.654    21025351.412
        47.000          45.500
 112885439.980 8  87962657.10246  21481378.173    21481377.214    21481385.635
        48.750          38.5004
 103359589.496 8  80390789.675 8  19308439.876    19308440.347    19308456.308
        50.500          49.000
 121454349.198 7  94639752.63347  23111993.776    23111992.786    23112001.375
        44.000          33.5004
 123247835.204 7  95859428.051 6  23088473.139    23088473.891    23088493.986
        44.000          40.000
 124874111.740 7  97304504.30845  23762753.396    23762753.051    23762763.826
        42.500          31.5004
 125550313.685 7  97831412.57945  23891430.150    23891428.813    23891437.435
        43.500          31.7504
 120901323.159 7  94034360.171 7  22640930.174    22640933.325    22640953.507
        42.500          43.500
 112722582.849 8  87835777.99347  21450394.287    21450393.190    21450399.611
        49.250          42.2504
 130780231.809 6                  24886650.073
        39.000
 115901397.961 8  90312778.36248  22055302.258    22055301.637    22055309.921
        48.250          43.0004
 127419706.067 6  99288085.95344  24247161.851    24247161.662    24247174.373
        40.500          29.0004
 119815770.178 5  93190048.930 6  22406155.994    22406154.486    22406173.991
        34.250          38.750
 118850471.553 6  92439260.450 5  22241248.389    22241247.370    22241264.917
        37.500          33.750
 117544577.988 7  91423558.969 7  21950621.318    21950620.632    21950638.008
        45.750          45.000
 109589882.129 8  85236535.633 8  20515447.048    20515446.601    20515465.590
        51.250          46.250
 125494166.786 6  97787661.94443  23880744.327    23880741.455    23880752.922
        38.250          21.7504
 124851422.362 6  97286826.66144  23758434.403    23758433.648    23758442.411
        41.000          27.0004
 109635917.784 8  85430586.15747  20863021.321    20863020.008    20863029.172
        50.750          43.5004
 12  3 25 12  9 50.0000000  0 21G05R02R19G13R03G29R18G04G23R13G02G26
                                G07G08R20R11R04R12G30G16G10
 112807420.055 8  87901892.17048  21466538.573    21466538.704    21466546.103
        48.750          42.7504
 112562207.614 7  87548387.071 7  21094110.320    21094110.551    21094128.038
        47.000          45.500
 112489369.840 8  87491735.768 7  21028702.165    21028701.299    21028717.638
        48.000          43.250
 112914639.954 7  87985410.20646  21486934.931    21486934.278    21486942.411
        47.750          39.2504
 103361330.234 8  80392143.444 8  19308764.959    19308765.451    19308781.610
        50.250          48.250
 121464093.282 7  94647345.28547  23113847.860    23113847.785    23113856.287
        43.000          37.5004
 123296004.763 7  95896893.066 7  23097496.976    23097498.316    23097518.063
        42.250          40.500
 124917488.974 6  97338304.62343  23771008.107    23771008.985    23771018.000
        36.250          21.5004
 125590905.227 6  97863042.20645  23899154.480    23899153.883    23899162.253
        41.250          32.0004
 120863521.361 4  94004959.885 5  22633853.582    22633855.177    22633872.139
        28.750          33.250
 112747584.136 7  87855259.37346  21455151.307    21455150.926    21455157.186
        46.500          40.5004
 130741899.007 6                  24879354.662
        37.750
 115886732.894 7  90301350.92247  22052511.241    22052510.938    22052519.396
        44.250          38.2504
 127388367.465 6  99263666.24944  24241200.364    24241197.477    24241210.584
        36.750          24.7504
 119792502.096 6  93171953.152 7  22401799.563    22401802.291    22401823.642
        38.250          41.250
 118889540.291 7  92469647.044 6  22248557.524    22248557.926    22248577.727
        42.500          37.500
 117512777.847 7  91398825.442 7  21944682.364    21944682.900    21944699.769
        43.500          42.750
 109584677.343 8  85232487.330 7  20514472.767    20514472.263    20514491.579
        48.000          44.500
 125513958.599 6  97803084.00344  23884510.973    23884509.396    23884520.641
        41.000          29.7504
 124850686.510 6  97286253.15045  23758293.525    23758293.627    23758301.649
        40.000          30.2504
 109660881.292 8  85450038.09146  20867772.675    20867770.846    20867779.531
        48.000          41.5004
 12  3 25 12 10  0.0000000  0 21G05R02R19G13R03G29R18G04G23R13G02G26
                                G07G08R20R11R04R12G30G16G10
 112791547.729 7  87889524.10948  21463518.601    21463518.265    21463525.970
        47.750          43.0004
 112600268.255 8  87577989.801 8  21101243.198    21101242.758    21101260.694
        48.750          46.500
 112507693.866 8  87505987.804 7  21032126.689    21032126.494    21032143.753
        48.000          44.000
 112943853.801 8  88008174.23946  21492493.941    21492493.431    21492501.766
        48.500          39.5004
 103363176.148 8  80393579.169 8  19309109.879    19309110.413    19309125.966
        50.500          48.000
 121474233.097 7  94655246.46047  23115777.453    23115777.010    23115785.716
        44.500          38.5004
 123344166.223 7  95934351.931 6  23106517.281    23106520.603    23106539.966
        42.500          39.750
 124960587.669 6  97371887.97243  23779209.220    23779207.580    23779220.294
        37.750          22.0004
 125631520.424 7  97894690.37545  23906883.984    23906882.793    23906890.591
        42.500          32.7504
 120825425.166 6  93975329.174 6  22626718.348    22626720.878    22626739.969
        37.250          37.000
 112772523.318 7  87874692.48646  21459896.949    21459896.578    21459903.077
        47.750          40.5004
 130703499.609 6                  24872048.840
        40.000
 115871901.918 7  90289794.36048  22049689.310    22049689.028    22049696.999
        46.750          41.2504
 127356712.425 5  99239000.03043  24235177.720    24235174.164    24235185.304
        35.500          18.5004
 119769667.714 6  93154193.047 7  22397531.732    22397531.927    22397553.078
        40.500          42.750
 118928933.234 6  92500285.926 6  22255929.768    22255928.144    22255948.901
        39.500          37.250
 117481223.082 6  91374282.851 7  21938789.298    21938789.484    21938807.699
        41.750          44.750
 109579482.350 8  85228446.791 7  20513500.351    20513499.323    20513519.100
        50.250          46.000
 125534143.714 6  97818812.67644  23888352.118    23888348.787    23888361.771
        40.250          29.0004
 124850214.929 7  97285885.73945  23758204.795    23758204.360    23758212.734
        44.250          35.7504
 109685736.022 8  85469405.43947  20872501.901    20872500.015    20872509.198
        48.500          42.2504
 12  3 25 12 10 10.0000000  0 21G05R02R19G13R03G29R18G04G23R13G02G26
                                G07G08R20R11R04R12G30G16G10
 112775729.670 8  87877198.36148  21460508.328    21460508.283    21460515.622
        48.750          43.5004
 112638361.512 8  87607617.870 8  21108381.143    21108381.679    21108399.364
        49.000          46.500
 112526179.393 8  87520365.446 7  21035583.311    21035582.342    21035598.567
        48.000          44.000
 112973184.630 8  88031029.41546  21498075.756    21498075.327    21498083.038
        49.500          40.5004
 103365110.104 8  80395083.350 8  19309471.528    19309471.555    19309487.720
        50.750          48.250
 121484590.128 7  94663316.86047  23117747.818    23117747.845    23117756.578
        44.250          37.5004
 123392231.049 7  95971735.647 6  23115523.163    23115523.778    23115544.356
        43.500          39.750
 125003496.655 6  97405323.52543  23787374.349    23787374.238    23787385.385
        38.750          23.0004
 125672276.772 6  97926448.50445  23914638.913    23914636.991    23914646.411
        40.250          32.2504
 120787193.770 6  93945593.697 6  22619560.116    22619562.056    22619579.924
        38.500          37.000
 112797390.620 7  87894069.58846  21464629.048    21464628.691    21464635.403
        47.750          40.5004
 130664961.482 6                  24864714.504
        41.250
 115857051.927 7  90278222.94548  22046863.544    22046862.672    22046871.030
        47.750          41.7504
 127324885.518 6  99214199.86243  24229120.119    24229117.985    24229130.402
        36.500          19.2504
 119747149.356 6  93136678.797 7  22393322.481    22393321.660    22393342.124
        39.250          42.750
 118968625.288 6  92531157.493 6  22263357.246    22263356.962    22263376.637
        38.750          35.500
 117449742.998 7  91349798.344 7  21932909.010    21932910.575    21932928.341
        42.500          44.500
 109574414.189 8  85224504.893 7  20512551.313    20512550.837    20512570.149
        50.750          46.250
 125554654.009 6  97834794.73244  23892254.552    23892254.307    23892265.339
        41.250          29.0004
 124850028.319 7  97285740.32046  23758169.339    23758168.382    23758177.667
        45.250          36.2504
 109710574.694 8  85488760.22647  20877227.883    20877226.498    20877235.896
        49.000          42.5004
 12  3 25 12 10 20.0000000  0 21G05R02R19G13R03G29R18G04G23R13G02G26
                                G07G08R20R11R04R12G30G16G10
 112759978.173 8  87864924.47048  21457510.398    21457510.832    21457518.615
        48.500          43.2504
 112676425.781 8  87637223.392 8  21115516.608    21115514.554    21115532.713
        49.250          46.500
 112544900.259 8  87534926.121 7  21039083.112    21039081.844    21039098.620
        48.000          44.500
 113002646.644 8  88053986.81946  21503682.034    21503681.815    21503689.732
        50.250          40.7504
 103367131.391 8  80396655.451 8  19309849.111    19309849.299    19309865.305
        50.750          48.250
 121495313.057 7  94671672.37947  23119788.404    23119788.607    23119797.253
        43.750          37.2504
 123440091.070 7  96008960.062 6  23124488.697    23124490.112    23124510.375
        43.000          39.750
 125045997.030 6  97438440.67543  23795463.571    23795461.305    23795472.763
        39.250          22.5004
 125713230.936 6  97958360.79945  23922432.456    23922431.092    23922440.079
        40.750          32.0004
 120748625.703 6  93915596.326 6  22612338.695    22612338.521    22612356.412
        38.750          36.250
 112822055.758 8  87913289.16946  21469322.310    21469322.292    21469328.783
        48.000          40.7504
 130626156.852 6 101786616.57643  24857330.241    24857330.014    24857341.681
        41.000          22.0004
 115842064.199 8  90266544.19248  22044010.581    22044010.566    22044019.014
        48.500          42.0004
 127292671.858 6  99189098.36943  24222988.422    24222989.771    24222998.876
        36.500          19.0004
 119725165.088 6  93119579.933 7  22389208.741    22389210.660    22389231.612
        40.500          43.750
 119008805.563 6  92562408.812 6  22270880.107    22270875.694    22270896.751
        39.250          37.250
 117418396.738 7  91325417.933 7  21927057.172    21927057.160    21927074.443
        42.750          44.250
 109569455.218 8  85220647.912 8  20511621.918    20511622.820    20511641.284
        50.750          46.250
 125575705.844 6  97851198.77144  23896261.039    23896260.361    23896271.708
        41.000          29.7504
 124850287.607 7  97285942.35746  23758219.143    23758218.262    23758227.540
        45.500          36.2504
 109735297.183 8  85508024.49247  20881932.940    20881931.189    20881940.303
        49.000          42.5004
 12  3 25 12 10 30.0000000  0 21G05R02R19G13R03G29R18G04G23R13G02G26
                                G07G08R20R11R04R12G30G16G10
 112744292.679 8  87852702.00548  21454526.368    21454525.805    21454533.456
        48.000          42.7504
 112714500.439 8  87666836.999 8  21122650.014    21122650.014    21122667.710
        49.250          46.500
 112563795.350 8  87549622.285 7  21042614.667    21042614.337    21042631.168
        48.250          44.750
 113032208.753 8  88077022.22646  21509307.201    21509307.076    21509315.131
        50.750          40.7504
 103369239.152 8  80398294.809 8  19310242.933    19310242.933    19310259.338
        50.750          48.250
 121506267.457 7  94680208.24647  23121873.298    23121872.881    23121881.983
        44.250          38.0004
 123487867.860 7  96046119.756 6  23133440.335    23133440.436    23133460.529
        42.750          39.250
 125088301.849 6  97471405.42343  23803513.961    23803512.711    23803523.758
        39.250          22.7504
 125754305.096 6  97990366.59245  23930247.685    23930247.056    23930254.676
        40.000          32.7504
 120709908.785 6  93885483.215 6  22605088.448    22605088.064    22605105.764
        38.500          36.500
 112846650.985 8  87932454.25346  21474003.315    21474002.445    21474009.158
        48.250          40.7504
 130587228.612 6 101756282.93643  24849923.197    24849921.422    24849931.666
        41.000          23.7504
 115827042.079 8  90254838.65248  22041152.606    22041152.216    22041160.334
        49.000          41.7504
 127260274.884 6  99163854.01843  24216824.108    24216822.971    24216833.254
        37.250          18.7504
 119703499.975 6  93102729.307 7  22385158.140    22385158.920    22385179.330
        40.250          43.250
 119049279.095 6  92593888.186 6  22278443.391    22278450.526    22278468.843
        39.000          36.750
 117387145.149 7  91301111.163 7  21921220.225    21921220.963    21921238.485
        42.500          43.500
 109564608.079 8  85216877.920 8  20510715.774    20510715.306    20510734.376
        50.500          46.500
 125597081.291 6  97867854.94644  23900328.257    23900326.932    23900339.157
        41.500          29.5004
 124850821.056 7  97286358.03345  23758320.521    23758319.909    23758328.394
        44.500          34.7504
 109759990.596 8  85527266.10047  20886631.356    20886630.436    20886639.324
        49.250          42.7504
 12  3 25 12 10 40.0000000  0 20G05R02R19G13R03G29R18G04G23R13G02G07
                                G08R20R11R04R12G30G16G10
 112728679.131 8  87840535.59948  21451555.239    21451554.424    21451562.213
        48.000          42.5004
 112752601.695 8  87696471.286 8  21129790.776    21129790.162    21129808.020
        49.000          46.750
 112582856.756 8  87564447.821 7  21046178.081    21046177.428    21046194.132
        48.500          45.000
 113061872.042 8  88100136.47446  21514952.500    21514951.742    21514960.013
        51.000          40.5004
 103371440.514 8  80400006.974 8  19310654.098    19310654.272    19310670.485
        50.750          48.000
 121517428.749 7  94688905.35047  23123997.163    23123996.686    23124005.428
        43.500          37.5004
 123535592.732 7  96083239.031 6  23142379.429    23142380.688    23142400.828
        42.000          39.500
 125130463.399 6  97504258.53243  23811536.782    23811535.157    23811544.664
        39.000          22.5004
 125795489.116 6  98022457.98345  23938084.791    23938085.372    23938092.531
        39.500          33.2504
 120671091.441 6  93855291.985 6  22597819.734    22597820.229    22597838.099
        38.250          37.000
 112871211.083 8  87951591.98046  21478677.262    21478676.435    21478682.667
        48.000          40.7504
 115812016.307 8  90243130.27148  22038292.948    22038292.903    22038300.776
        48.500          42.0004
 127227745.775 6  99138506.67643  24210634.754    24210632.860    24210644.186
        37.750          19.2504
 119682113.646 6  93086095.504 7  22381158.891    22381159.320    22381180.185
        40.250          43.500
 119090009.538 6  92625567.423 6  22286072.653    22286072.143    22286092.514
        39.000          36.750
 117355984.965 7  91276875.470 7  21915399.620    21915402.189    21915419.397
        43.000          43.500
 109559881.610 8  85213201.775 8  20509832.175    20509830.406    20509849.724
        50.250          46.500
 125618738.664 7  97884730.81444  23904449.243    23904448.110    23904461.271
        42.250          29.5004
 124851597.884 7  97286963.36345  23758467.935    23758466.973    23758476.074
        45.000          35.5004
 109784681.298 8  85546505.59747  20891330.150    20891328.840    20891337.936
        49.250          43.0004
 12  3 25 12 10 50.0000000  0 20G05R02R19G13R03G29R18G04G23R13G02G07
                                G08R20R11R04R12G30G16G10
 112713134.291 7  87828422.74448  21448596.621    21448596.510    21448604.334
        47.500          42.5004
 112790741.915 8  87726135.886 8  21136937.942    21136937.819    21136955.564
        49.250          46.750
 112602057.293 8  87579381.563 7  21049767.044    21049767.076    21049783.775
        48.000          44.750
 113091621.303 8  88123317.70946  21520613.358    21520613.152    21520620.799
        50.750          40.5004
 103373732.318 8  80401789.479 8  19311082.010    19311082.154    19311098.373
        50.500          48.000
 121528740.962 7  94697720.05547  23126149.985    23126149.526    23126157.830
        43.250          37.5004
 123583310.483 7  96120352.808 6  23151319.861    23151319.873    23151340.786
        42.000          39.000
 125172562.398 6  97537062.90543  23819546.676    23819545.180    23819556.146
        38.500          22.2504
 125836749.537 6  98054608.90045  23945937.500    23945936.370    23945945.058
        38.750          33.2504
 120632244.166 6  93825077.478 6  22590547.881    22590542.440    22590562.481
        38.000          37.000
 112895785.186 7  87970740.61946  21483353.590    21483352.520    21483359.013
        47.500          40.7504
 115797024.636 8  90231448.45348  22035439.985    22035439.853    22035448.347
        48.500          41.7504
 127195161.547 6  99113116.42543  24204433.772    24204433.517    24204443.285
        38.000          19.0004
 119660918.726 6  93069610.591 7  22377192.943    22377195.230    22377216.971
        40.500          43.500
 119130917.336 6  92657384.558 6  22293722.349    22293728.078    22293747.442
        40.000          36.750
 117324897.495 7  91252696.325 7  21909594.732    21909596.981    21909614.075
        42.750          43.500
 109555273.659 8  85209617.816 8  20508967.858    20508967.972    20508987.509
        50.000          46.500
 125640589.132 7  97901757.15844  23908608.387    23908606.069    23908618.433
        42.250          29.2504
 124852547.599 7  97287703.40145  23758648.506    23758647.972    23758656.918
        44.750          35.7504
 109809400.830 8  85565767.55847  20896034.152    20896032.904    20896041.964
        49.250          43.0004
 12  3 25 12 11  0.0000000  0 20G05R02R19G13R03G29R18G04G23R13G02G07
                                G08R20R11R04R12G30G16G10
 112697658.647 8  87816363.80248  21445651.678    21445651.750    21445659.311
        48.000          42.5004
 112828922.677 8  87755832.013 8  21144093.128    21144092.861    21144110.420
        48.750          46.500
 112621398.124 8  87594424.428 7  21053382.984    21053382.618    21053399.092
        48.500          44.750
 113121459.688 8  88146568.39246  21526291.892    21526290.996    21526298.832
        51.000          40.7504
 103376115.963 8  80403643.425 8  19311528.248    19311527.349    19311543.723
        50.500          47.750
 121540206.845 7  94706654.49747  23128331.116    23128331.313    23128339.822
        43.750          37.5004
 123631018.311 6  96157458.852 6  23160257.639    23160257.277    23160276.883
        41.500          39.500
 125214595.581 6  97569816.00143  23827546.557    23827543.643    23827553.758
        37.750          22.5004
 125878089.940 6  98086822.15745  23953802.529    23953803.950    23953811.375
        40.000          33.5004
 120593365.723 6  93794838.724 6  22583260.484    22583264.408    22583282.138
        38.000          37.500
 112920371.087 8  87989898.45146  21488032.043    21488031.018    21488037.586
        48.000          40.5004
 115782067.621 8  90219793.63748  22032594.520    22032593.906    22032601.931
        48.750          42.0004
 127162519.846 6  99087681.37243  24198222.678    24198220.550    24198233.303
        37.750          19.0004
 119639920.184 6  93053278.408 7  22373263.317    22373268.258    22373289.603
        40.500          43.250
 119172007.621 6  92689343.668 6  22301419.197    22301417.149    22301436.324
        39.750          36.750
 117293883.835 7  91228574.598 7  21903802.157    21903804.849    21903822.783
        42.500          43.500
 109550787.155 8  85206128.312 8  20508129.033    20508128.268    20508147.098
        50.250          46.500
 125662638.329 7  97918938.33944  23912803.700    23912801.134    23912814.157
        42.500          29.2504
 124853675.611 7  97288582.37246  23758863.805    23758862.519    23758872.268
        44.500          36.2504
 109834149.066 8  85585051.88947  20900743.849    20900742.503    20900751.344
        49.250          43.0004
 12  3 25 12 11 10.0000000  0 20G05R02R19G13R03G29R18G04G23R13G02G07
                                G08R20R11R04R12G30G16G10
 112682250.138 8  87804357.17748  21442719.573    21442719.438    21442727.254
        48.000          42.7504
 112867154.400 8  87785567.781 8  21151257.556    21151257.379    21151275.142
        49.000          46.500
 112640858.746 8  87609560.462 7  21057021.430    21057020.504    21057037.134
        48.500          45.000
 113151375.087 8  88169879.08646  21531984.309    21531983.791    21531991.606
        51.000          40.5004
 103378588.443 8  80405566.455 8  19311989.038    19311989.497    19312005.707
        50.500          48.250
 121551783.166 7  94715674.99347  23130534.482    23130534.311    23130543.512
        44.000          38.0004
 123678753.807 6  96194586.411 6  23169198.973    23169199.615    23169219.800
        41.750          39.750
 125256628.688 6  97602569.06143  23835544.300    23835545.583    23835551.912
        37.750          22.7504
 125919484.640 6  98119077.74045  23961680.760    23961680.799    23961687.901
        40.000          33.2504
 120554513.366 6  93764620.266 6  22575991.392    22575988.433    22576006.670
        38.000          37.250
 112945008.738 7  88009096.61346  21492719.949    21492719.472    21492725.995
        47.750          40.7504
 115767175.286 8  90208189.22648  22029759.578    22029759.680    22029767.867
        49.000          42.2504
 127129883.279 6  99062250.29643  24192011.347    24192009.983    24192022.313
        37.250          18.2504
 119619049.881 6  93037045.974 7  22369360.535    22369365.529    22369387.094
        40.500          43.500
 119213217.746 6  92721395.960 6  22309130.341    22309128.989    22309149.066
        39.500          36.500
 117262930.104 7  91204499.474 7  21898007.073    21898025.046    21898042.323
        43.000          43.500
 109546419.986 8  85202731.622 8  20507312.068    20507310.509    20507330.194
        50.000          46.500
 125684816.728 7  97936220.20844  23917024.748    23917023.261    23917033.928
        42.250          29.2504
 124854926.712 7  97289557.26745  23759100.803    23759100.500    23759109.967
        44.250          35.2504
 109858951.226 8  85604378.24147  20905463.080    20905461.971    20905471.100
        49.250          43.2504
 12  3 25 12 11 20.0000000  0 20G05R02R19G13R03G29R18G04G23R13G02G07
                                G08R20R11R04R12G30G16G10
 112666912.802 8  87792406.00748  21439800.956    21439800.935    21439808.678
        48.750          43.2504
 112905523.675 8  87815410.527 8  21158448.036    21158448.054    21158465.466
        49.250          46.750
 112660341.801 7  87624713.945 7  21060662.961    21060663.009    21060679.234
        47.500          44.750
 113181327.270 8  88193218.42446  21537684.024    21537683.382    21537691.246
        51.000          40.5004
 103381160.317 8  80407566.800 8  19312469.791    19312469.543    19312486.037
        50.500          48.000
 121563243.565 7  94724605.17947  23132715.457    23132715.011    23132723.992
        43.500          36.7504
 123726727.886 6  96231899.552 6  23178188.625    23178186.382    23178207.473
        41.750          39.500
 125299035.835 6  97635613.53943  23843614.176    23843616.557    23843623.539
        38.500          22.7504
 125960814.469 6  98151282.79445  23969546.519    23969546.279    23969553.963
        39.000          31.5004
 120516017.509 6  93734679.087 6  22568779.357    22568777.501    22568798.046
        37.750          36.500
 112969935.343 8  88028519.93246  21497463.178    21497462.902    21497469.210
        48.000          40.2504
 115752534.620 8  90196780.92148  22026974.311    22026974.128    22026981.734
        49.750          42.5004
 127097608.334 6  99037101.07242  24185869.385    24185869.727    24185879.392
        36.500          17.7504
 119597947.802 6  93020633.262 7  22365419.253    22365419.469    22365440.865
        40.500          44.000
 119254219.740 6  92753286.365 6  22316795.411    22316801.641    22316821.820
        40.000          37.250
 117231966.684 7  91180416.798 7  21892224.592    21892242.517    21892259.860
        44.000          44.000
 109542185.278 8  85199437.955 8  20506518.155    20506517.735    20506537.471
        50.750          46.750
 125706756.545 6  97953316.16644  23921199.118    23921197.775    23921208.817
        41.750          29.5004
 124856015.116 7  97290405.36646  23759308.208    23759307.720    23759317.037
        44.500          36.7504
 109883972.731 8  85623875.50647  20910224.732    20910223.520    20910232.691
        49.250          42.7504
 12  3 25 12 11 30.0000000  0 21G05R02R19G13R03G29R18G04G23R13G02G26
                                G07G08R20R11R04R12G30G16G10
 112651646.378 8  87780510.08648  21436896.377    21436896.006    21436903.638
        49.500          43.7504
 112944034.732 8  87845363.551 8  21165664.817    21165664.637    21165682.784
        49.250          47.000
 112679834.664 8  87639875.048 7  21064306.987    21064306.795    21064323.298
        48.500          44.000
 113211301.813 8  88216575.20546  21543388.445    21543387.362    21543395.469
        49.500          39.7504
 103383828.523 8  80409642.070 8  19312967.147    19312968.691    19312984.751
        50.750          48.000
 121574557.758 7  94733421.41547  23134868.474    23134868.432    23134876.799
        43.500          38.0004
 123774971.554 7  96269422.374 6  23187223.413    23187224.840    23187245.064
        43.000          40.000
 125341865.942 6  97668987.62243  23851764.874    23851764.157    23851775.349
        39.250          22.7504
 126002054.593 6  98183417.90245  23977393.809    23977392.840    23977401.384
        38.750          31.7504
 120477917.239 6  93705045.584 6  22561643.466    22561643.139    22561660.827
        37.500          38.000
 112995182.815 8  88048193.27146  21502267.673    21502267.532    21502273.947
        48.000          40.5004
 130353614.421 7 101574246.15744  24805467.321    24805466.395    24805477.691
        43.000          26.2504
 115738162.655 8  90185582.00048  22024239.187    22024239.053    22024246.880
        49.750          42.2504
 127065738.895 6  99012267.77643  24179803.507    24179806.748    24179814.477
        37.500          18.2504
 119576561.826 6  93003999.741 7  22361420.960    22361420.304    22361441.511
        41.500          43.750
 119294961.288 6  92784974.198 6  22324407.825    22324426.382    22324445.329
        40.250          37.000
 117200984.241 7  91156319.350 7  21886438.016    21886456.879    21886474.330
        43.500          45.250
 109538074.756 8  85196240.883 8  20505748.201    20505748.234    20505768.047
        51.000          47.000
 125728402.101 6  97970182.81244  23925318.399    23925316.876    23925328.115
        41.250          29.5004
 124856893.983 7  97291090.22845  23759475.714    23759474.764    23759484.873
        44.250          35.7504
 109909230.654 8  85643557.00147  20915031.025    20915029.796    20915039.069
        49.250          42.7504
 12  3 25 12 11 40.0000000  0 21G05R02R19G13R03G29R18G04G23R13G02G26
                                G07G08R20R11R04R12G30G16G10
 112636498.304 8  87768706.36648  21434013.633    21434013.555    21434021.122
        48.500          44.2504
 112982668.093 7  87875411.644 7  21172905.998    21172904.757    21172922.589
        45.750          45.500
 112699337.402 7  87655043.783 7  21067953.536    21067952.280    21067968.514
        45.750          43.000
 113241209.755 8  88239880.03846  21549079.225    21549078.931    21549086.882
        48.250          39.0004
 103386598.095 8  80411796.124 8  19313485.233    19313485.998    19313501.932
        50.500          48.750
 121585647.877 6  94742062.98347  23136979.357    23136979.115    23136987.062
        41.250          34.0004
 123823668.372 7  96307297.626 6  23196348.475    23196347.339    23196367.587
        44.500          40.250
 125385329.667 7  97702855.37245  23860035.425    23860034.577    23860045.453
        46.000          35.0004
 126043055.394 6  98215366.50245  23985197.475    23985195.326    23985202.994
        38.250          30.5004
 120440355.895 6  93675831.157 6  22554608.114    22554608.935    22554628.847
        39.750          38.750
 113020914.009 8  88068243.52947  21507164.375    21507163.808    21507170.413
        48.500          42.0004
 130315546.355 7 101544582.75744  24798223.685    24798222.645    24798232.643
        42.500          26.7504
 115724108.480 7  90174630.63447  22021565.060    22021564.655    22021572.120
        46.000          37.7504
 127034445.269 7  98987883.08744  24173849.479    24173849.548    24173858.458
        44.000          29.7504
 119554690.278 6  92986988.574 7  22357326.830    22357329.372    22357351.005
        39.500          42.500
 119335216.162 6  92816283.518 6  22331960.658    22331960.317    22331980.193
        41.000          36.500
 117170007.892 6  91132226.579 7  21880660.296    21880672.276    21880689.733
        41.250          43.750
 109534030.360 8  85193095.234 7  20504991.198    20504991.048    20505010.451
        49.750          44.500
 125749521.588 6  97986639.53144  23929337.410    23929337.000    23929346.614
        41.500          29.7504
 124857345.054 6  97291441.60845  23759561.368    23759560.768    23759570.197
        41.500          34.0004
 109934786.048 8  85663470.21547  20919894.474    20919893.068    20919902.245
        48.750          42.5004
 12  3 25 12 11 50.0000000  0 21G05R02R19G13R03G29R18G04G23R13G02G26
                                G07G08R20R11R04R12G30G16G10
 112621449.959 7  87756980.28948  21431150.183    21431150.141    21431157.465
        47.750          42.0004
 113021526.806 8  87905635.000 7  21180186.479    21180186.944    21180204.661
        48.500          45.750
 112718743.226 7  87670137.139 7  21071581.259    21071580.171    21071597.289
        45.500          44.500
 113271038.749 8  88263123.32346  21554755.294    21554754.563    21554762.768
        48.500          38.5004
 103389475.372 8  80414033.947 8  19314022.797    19314023.208    19314039.490
        50.500          48.500
 121596296.414 7  94750360.48347  23139005.136    23139004.872    23139013.180
        42.000          33.0004
 123872972.695 7  96345645.316 6  23205583.702    23205583.858    23205604.477
        43.750          40.000
 125429750.000 7  97737468.52545  23868488.271    23868487.666    23868497.727
        44.000          31.5004
 126083745.286 6  98247072.79445  23992939.172    23992938.404    23992947.518
        40.750          32.5004
 120403632.860 7  93647268.734 7  22547732.368    22547732.074    22547751.255
        44.500          43.500
 113047322.681 7  88088821.65546  21512190.318    21512189.328    21512196.044
        46.750          40.0004
 130278138.276 5 101515433.63643  24791103.386    24791102.871    24791116.682
        35.500          22.5004
 115710550.367 7  90164065.80147  22018985.106    22018984.575    22018992.406
        47.500          40.7504
 127004044.828 7  98964194.39445  24168064.738    24168064.051    24168074.478
        42.250          32.0004
 119532019.658 5  92969356.828 6  22353093.430    22353091.374    22353111.058
        33.000          37.000
 119374711.588 5  92847002.106 5  22339354.302    22339350.402    22339368.329
        33.500          32.250
 117138944.749 7  91108066.332 7  21874870.812    21874871.714    21874888.752
        44.250          44.000
 109530081.832 8  85190024.076 7  20504252.428    20504251.967    20504271.390
        48.500          45.750
 125769802.602 6  98002442.82643  23933196.393    23933195.062    23933205.564
        37.000          19.0004
 124857139.711 6  97291281.58944  23759522.671    23759520.221    23759530.522
        38.000          26.5004
 109960794.316 8  85683736.37447  20924843.523    20924842.447    20924851.540
        49.750          43.0004
 12  3 25 12 12  0.0000000  0 21G05R02R19G13R03G29R18G04G23R13G02G26
                                G07G08R20R11R04R12G30G16G10
 112606397.123 8  87745250.79948  21428285.019    21428285.708    21428293.086
        49.250          42.2504
 113060696.154 8  87936100.045 7  21187527.374    21187527.044    21187544.828
        48.500          45.000
 112737993.428 7  87685109.513 7  21075179.338    21075178.819    21075195.533
        46.750          45.000
 113300938.165 8  88286421.55846  21560444.987    21560444.654    21560452.580
        49.500          39.0004
 103392446.915 8  80416345.148 8  19314578.561    19314578.609    19314594.987
        50.750          48.500
 121606532.737 7  94758336.82347  23140954.228    23140952.483    23140962.229
        43.750          34.5004
 123922619.502 7  96384259.474 6  23214881.921    23214884.604    23214904.762
        44.000          39.750
 125474898.195 7  97772648.92645  23877078.713    23877079.457    23877090.591
        43.000          30.0004
 126124360.939 6  98278721.32245  24000668.517    24000667.162    24000676.243
        41.250          33.0004
 120367628.304 7  93619265.226 7  22540991.330    22540989.643    22541009.117
        45.000          45.250
 113074201.946 8  88109766.54346  21517304.771    21517304.204    21517311.055
        48.500          41.0004
 130241111.655 6 101486581.69543  24784058.749    24784057.058    24784071.508
        38.000          23.7504
 115697477.949 7  90153879.51448  22016497.260    22016496.882    22016505.037
        47.750          40.7504
 126974377.916 6  98941077.35345  24162420.081    24162417.227    24162428.865
        41.000          31.0004
 119508759.837 5  92951265.873 6  22348737.494    22348740.597    22348761.933
        34.000          37.500
 119413718.328 5  92877340.667 5  22346652.710    22346648.747    22346667.829
        34.750          32.250
 117107692.925 7  91083759.372 7  21869035.903    21869036.143    21869052.512
        44.750          44.500
 109526339.457 8  85187113.332 7  20503551.927    20503551.433    20503570.733
        50.250          46.250
 125789507.930 6  98017797.61043  23936946.617    23936945.453    23936955.595
        38.750          20.2504
 124856557.448 6  97290827.90544  23759412.062    23759409.541    23759418.460
        39.500          26.7504
 109987216.393 8  85704325.00447  20929871.178    20929870.110    20929879.392
        50.500          43.5004
 12  3 25 12 12 10.0000000  0 21G05R02R19G13R03G29R18G04G23R13G02G26
                                G07G08R20R11R04R12G30G16G10
 112591414.373 8  87733575.92348  21425434.107    21425434.361    21425441.724
        49.500          42.2504
 113100001.774 7  87966671.074 7  21194892.165    21194893.323    21194911.037
        47.500          45.250
 112757264.282 7  87700097.954 7  21078781.143    21078781.275    21078798.226
        46.750          44.750
 113330852.727 8  88309731.59346  21566137.704    21566137.221    21566145.144
        50.000          38.5004
 103395512.955 8  80418729.838 8  19315151.075    19315151.288    19315167.600
        51.250          49.000
 121616638.485 7  94766211.43147  23142876.185    23142875.556    23142884.612
        44.500          35.0004
 123972524.673 7  96423074.571 6  23224234.045    23224232.957    23224254.224
        42.750          39.250
 125520446.579 7  97808141.14145  23885747.656    23885747.152    23885757.858
        43.000          30.7504
 126164887.459 6  98310300.40145  24008380.849    24008378.801    24008388.194
        40.500          33.0004
 120331991.502 7  93591547.724 7  22534316.835    22534316.008    22534336.301
        45.250          44.000
 113101392.438 8  88130953.91246  21522479.303    21522478.361    21522484.894
        48.250          40.5004
 130204349.495 5 101457935.87344  24777064.429    24777060.475    24777076.820
        33.250          24.2504
 115684650.700 8  90143884.26448  22014056.326    22014056.089    22014063.998
        48.250          41.5004
 126945088.405 7  98918254.39645  24156845.425    24156844.792    24156855.657
        43.500          32.7504
 119485236.838 5  92932970.218 6  22344336.930    22344342.552    22344363.111
        34.250          37.750
 119452472.462 5  92907482.750 5  22353898.730    22353903.500    22353919.185
        35.500          32.250
 117076421.032 7  91059436.805 7  21863195.596    21863196.009    21863213.002
        45.000          45.000
 109522704.741 8  85184286.337 7  20502870.937    20502870.835    20502890.465
        50.250          46.250
 125808932.835 6  98032933.90543  23940643.393    23940640.848    23940652.723
        39.250          21.0004
 124855772.447 6  97290216.19944  23759262.712    23759262.370    23759270.473
        40.000          26.7504
 110013864.937 8  85725090.08647  20934942.836    20934941.475    20934950.118
        50.750          43.5004
 12  3 25 12 12 20.0000000  0 20G05R02R19G13R03G29R18G04G23R13G02G07
                                G08R20R11R04R12G30G16G10
 112576507.653 8  87721960.30248  21422597.629    21422597.467    21422604.962
        49.500          42.0004
 113139424.942 7  87997333.506 7  21202281.519    21202281.156    21202299.063
        47.500          45.750
 112776595.417 7  87715133.274 7  21082396.116    21082395.270    21082411.555
        47.000          45.000
 113360805.660 8  88333071.54646  21571837.709    21571836.977    21571844.999
        49.750          38.7504
 103398679.282 8  80421192.531 8  19315742.812    19315742.859    19315758.847
        51.000          48.750
 121626695.727 7  94774048.23047  23144790.813    23144790.231    23144798.239
        43.750          34.5004
 124022622.326 6  96462039.359 6  23233619.150    23233618.338    23233637.596
        41.500          39.500
 125566276.795 7  97843852.93545  23894468.610    23894468.553    23894479.375
        43.750          31.5004
 126205374.190 6  98341848.46445  24016084.724    24016083.752    24016092.251
        40.250          33.0004
 120296619.902 7  93564036.563 7  22527692.156    22527692.105    22527711.838
        44.250          43.750
 113128822.146 8  88152327.70446  21527698.764    21527698.357    21527704.898
        48.750          41.0004
 115672015.373 8  90134038.57148  22011652.143    22011651.625    22011659.578
        48.500          42.0004
 126916064.551 6  98895638.44545  24151321.743    24151322.591    24151332.296
        41.750          30.7504
 119461579.250 5  92914569.865 6  22339914.677    22339917.675    22339938.037
        34.000          38.000
 119491092.162 6  92937520.248 5  22361129.008    22361131.094    22361148.170
        36.250          32.750
 117045158.198 7  91035121.277 7  21857357.455    21857357.725    21857374.298
        45.000          45.000
 109519183.122 8  85181547.306 7  20502212.284    20502211.750    20502230.817
        50.000          46.000
 125828207.984 6  98047953.51843  23944310.761    23944309.190    23944320.300
        39.500          21.5004
 124854888.998 6  97289527.79044  23759094.300    23759093.530    23759103.711
        40.250          27.2504
 110040694.050 8  85745995.88047  20940048.313    20940046.739    20940055.613
        51.000          43.7504
 12  3 25 12 12 30.0000000  0 20G05R02R19G13R03G29R18G04G23R13G02G07
                                G08R20R11R04R12G30G16G10
 112561668.115 8  87710397.02848  21419773.911    21419773.677    21419781.103
        49.250          42.2504
 113178957.046 7  88028080.670 7  21209689.061    21209689.445    21209707.402
        47.250          46.250
 112795990.291 7  87730218.165 7  21086020.664    21086020.412    21086037.368
        47.250          45.000
 113390803.167 8  88356446.22146  21577546.120    21577545.589    21577553.552
        49.750          38.5004
 103401939.734 8  80423728.434 8  19316352.116    19316351.966    19316367.924
        51.250          49.000
 121636724.662 7  94781862.98847  23146698.821    23146697.679    23146707.095
        44.250          35.0004
 124072877.578 7  96501126.749 6  23243032.405    23243033.377    23243052.662
        42.250          40.000
 125612339.756 7  97879746.13745  23903233.980    23903234.022    23903244.683
        43.750          31.2504
 126245840.012 6  98373380.24645  24023783.912    24023784.059    24023793.440
        40.000          33.5004
 120261473.379 7  93536700.396 7  22521110.021    22521109.967    22521130.152
        44.500          44.500
 113156455.511 8  88173860.18446  21532957.442    21532956.545    21532963.288
        48.000          41.0004
 115659549.351 8  90124324.79448  22009279.187    22009279.463    22009287.284
        48.250          41.7504
 126887262.113 7  98873195.02345  24145841.564    24145841.048    24145851.616
        42.000          31.7504
 119437828.043 5  92896096.723 6  22335476.606    22335476.921    22335497.928
        34.500          38.000
 119529617.349 6  92967484.251 5  22368337.634    22368338.303    22368357.549
        36.250          32.500
 117013903.350 7  91010811.965 7  21851519.726    21851520.946    21851537.575
        45.250          45.250
 109515773.549 8  85178895.423 8  20501573.030    20501573.294    20501593.017
        50.250          46.000
 125847377.658 6  98062890.96443  23947959.526    23947956.818    23947967.629
        39.500          21.0004
 124853943.860 6  97288791.33544  23758914.335    23758914.497    23758921.857
        40.500          27.7504
 110067681.939 8  85767025.39147  20945183.293    20945182.313    20945191.361
        50.750          44.2504
 12  3 25 12 12 40.0000000  0 20G05R02R19G13R03G29R18G04G23R13G02G07
                                G08R20R11R04R12G30G16G10
 112546902.670 8  87698891.48648  21416963.669    21416963.827    21416971.073
        49.250          42.0004
 113218570.833 7  88058891.377 7  21217112.645    21217113.019    21217130.848
        46.500          45.000
 112815489.303 7  87745384.056 7  21089666.497    21089665.597    21089682.715
        47.500          44.750
 113420861.766 8  88379868.48546  21583265.914    21583265.380    21583273.589
        50.000          38.2504
 103405297.785 8  80426340.249 8  19316979.329    19316979.261    19316995.398
        51.000          49.250
 121646808.521 7  94789720.55247  23148617.481    23148616.896    23148624.799
        44.250          34.5004
 124123226.223 6  96540286.769 6  23252465.651    23252464.656    23252486.118
        40.500          39.000
 125658512.719 7  97915725.03645  23912019.512    23912020.565    23912032.008
        43.500          31.2504
 126286325.221 6  98404927.11345  24031489.406    24031487.814    24031497.009
        41.000          33.5004
 120226442.976 7  93509454.582 7  22514551.836    22514550.091    22514569.512
        44.750          44.250
 113184218.623 7  88195493.76546  21538240.142    21538239.671    21538246.239
        46.250          40.5004
 115647193.046 8  90114696.52048  22006928.344    22006928.230    22006935.949
        48.750          42.2504
 126858563.290 7  98850832.36645  24140380.937    24140380.125    24140389.451
        42.250          30.7504
 119414109.657 5  92877649.094 6  22331043.977    22331038.806    22331062.555
        34.500          38.250
 119568162.043 5  92997463.435 5  22375549.684    22375553.728    22375574.429
        35.500          32.500
 116982688.450 7  90986533.724 7  21845691.988    21845692.147    21845708.765
        45.750          45.250
 109512475.725 8  85176330.454 8  20500956.714    20500955.701    20500975.226
        50.500          45.750
 125866569.277 6  98077845.52243  23951611.639    23951609.313    23951619.161
        39.500          21.2504
 124853035.737 6  97288083.69844  23758741.379    23758741.121    23758749.587
        41.250          27.0004
 110094776.949 8  85788138.38147  20950339.631    20950338.354    20950347.290
        49.750          43.7504
 12  3 25 12 12 50.0000000  0 21G05R02R19G26G13R03G29R18G04G23R13G02
                                G07G08R20R11R04R12G30G16G10
 112532211.908 8  87687444.13848  21414168.584    21414168.362    21414175.770
        49.750          42.5004
 113258181.422 7  88089699.588 7  21224536.558    21224536.123    21224553.721
        47.250          45.250
 112835190.212 7  87760706.976 7  21093349.909    21093348.928    21093365.435
        47.250          44.750
 130058492.486 6 101344279.31444  24749305.075    24749305.878    24749319.465
        40.000          24.0004
 113451027.069 8  88403373.89946  21589006.337    21589005.899    21589013.856
        50.000          38.5004
 103408747.548 8  80429023.403 8  19317623.919    19317623.676    19317639.949
        51.250          49.000
 121657173.816 7  94797797.39147  23150590.825    23150589.147    23150598.596
        44.500          35.2504
 124173460.161 7  96579357.545 6  23261876.409    23261875.717    23261895.920
        42.000          39.000
 125704426.224 7  97951501.77445  23920758.172    23920756.913    23920766.893
        43.250          30.2504
 126326950.823 6  98436583.38345  24039219.603    24039219.201    24039227.493
        41.500          33.0004
 120191206.574 7  93482048.506 7  22507950.529    22507951.494    22507970.663
        44.250          44.500
 113211877.100 7  88217045.82346  21543503.733    21543502.884    21543509.941
        46.500          40.7504
 115634769.030 8  90105015.45948  22004563.686    22004563.883    22004571.915
        48.500          41.7504
 126829619.337 7  98828278.63045  24134873.081    24134871.588    24134883.055
        43.000          33.0004
 119390784.014 5  92859506.943 6  22326679.577    22326678.759    22326700.914
        34.250          38.000
 119607057.912 5  93027715.753 5  22382829.029    22382832.447    22382850.983
        35.750          32.000
 116951589.273 7  90962345.482 7  21839881.588    21839884.316    21839901.173
        45.750          45.250
 109509286.297 8  85173849.787 8  20500359.390    20500358.718    20500378.172
        50.500          46.250
 125886152.518 6  98093105.18243  23955337.877    23955336.971    23955345.755
        39.750          21.0004
 124852453.924 6  97287630.34944  23758630.905    23758629.826    23758638.730
        41.250          27.2504
 110121817.427 8  85809208.87647  20955485.241    20955483.910    20955492.922
        49.750          43.5004
 12  3 25 12 13  0.0000000  0 21G05R02R19G26G13R03G29R18G04G23R13G02
                                G07G08R20R11R04R12G30G16G10
 112517584.148 8  87676045.88948  21411384.102    21411384.810    21411392.415
        49.750          43.0004
 113297799.445 8  88120513.580 7  21231959.683    21231960.619    21231978.420
        48.250          45.750
 112855074.207 7  87776172.296 7  21097065.938    21097065.620    21097082.769
        47.000          45.250
 130021823.054 6 101315705.78644  24742330.526    24742327.957    24742340.770
        40.500          25.2504
 113481303.104 8  88426965.61846  21594767.425    21594766.954    21594775.087
        50.000          38.7504
 103412284.404 8  80431774.290 8  19318285.432    19318284.338    19318300.470
        51.000          49.000
 121667796.228 7  94806074.60447  23152611.091    23152610.515    23152620.052
        44.500          35.2504
 124223576.495 7  96618336.871 6  23271261.358    23271264.083    23271284.595
        42.000          38.750
 125750095.938 7  97987088.53245  23929449.509    23929448.567    23929459.390
        43.500          30.5004
 126367719.710 7  98468351.32545  24046977.176    24046976.723    24046984.953
        42.250          33.2504
 120155784.976 7  93454498.417 7  22501319.702    22501317.360    22501337.347
        45.000          45.250
 113239433.981 8  88238518.70946  21548748.149    21548746.704    21548753.545
        48.000          41.0004
 115622292.030 7  90095293.13848  22002189.809    22002189.491    22002197.741
        47.750          41.2504
 126800450.386 6  98805549.63345  24129322.370    24129320.664    24129330.806
        40.750          31.0004
 119367827.939 5  92841652.232 6  22322380.482    22322384.814    22322407.103
        34.500          37.750
 119646290.200 5  93058229.712 5  22390179.415    22390175.056    22390192.261
        35.500          31.750
 116920588.123 7  90938233.483 7  21834095.170    21834094.991    21834112.394
        46.250          45.250
 109506212.280 8  85171458.890 7  20499783.803    20499783.449    20499803.358
        50.000          46.250
 125906108.071 6  98108654.96943  23959136.871    23959134.041    23959142.888
        39.000          20.5004
 124852188.659 6  97287423.66744  23758579.799    23758581.182    23758587.987
        41.000          27.0004
 110148812.024 8  85830243.61947  20960622.194    20960620.857    20960630.139
        50.750          43.7504
 12  3 25 12 13 10.0000000  0 21G05R02R19G26G13R03G29R18G04G23R13G02
                                G07G08R20R11R04R12G30G16G10
 112503031.648 8  87664706.28648  21408616.100    21408615.576    21408623.050
        50.250          44.0004
 113337392.341 8  88151308.030 8  21239381.081    21239379.999    21239398.020
        48.000          47.000
 112875183.792 8  87791813.079 7  21100826.586    21100824.925    21100842.121
        48.000          45.000
 129984933.954 6 101286961.03444  24735310.355    24735306.796    24735318.509
        41.750          25.5004
 113511700.538 8  88450651.93446  21600552.310    21600551.671    21600559.070
        50.000          39.0004
 103415912.017 8  80434595.762 8  19318962.010    19318962.079    19318978.034
        50.750          49.000
 121678757.984 7  94814616.24547  23154697.257    23154696.810    23154705.591
        45.250          36.2504
 124273523.508 7  96657184.497 6  23280619.952    23280620.339    23280640.611
        42.250          39.500
 125795410.299 7  98022398.35445  23938072.002    23938070.793    23938081.670
        44.750          31.5004
 126408661.994 7  98500254.36345  24054768.500    24054768.632    24054776.894
        43.500          33.7504
 120120076.867 7  93426725.480 7  22494630.576    22494630.753    22494650.617
        45.000          44.500
 113266824.113 8  88259861.64846  21553959.834    21553958.902    21553965.527
        48.250          40.0004
 115609705.507 8  90085485.45548  21999794.662    21999794.476    21999802.499
        48.750          42.0004
 126770948.285 7  98782561.03345  24123708.249    24123706.307    24123718.172
        43.000          33.7504
 119345358.509 5  92824176.013 6  22318181.382    22318184.101    22318204.451
        34.250          38.750
 119685962.585 6  93089085.988 5  22397574.957    22397598.100    22397616.157
        36.250          31.250
 116889724.188 7  90914228.210 7  21828334.107    21828331.445    21828348.413
        46.250          45.000
 109503250.949 8  85169155.646 7  20499228.410    20499228.962    20499248.506
        49.500          46.250
 125926553.241 6  98124586.28043  23963025.862    23963022.289    23963035.498
        39.000          20.2504
 124852327.832 6  97287532.11844  23758607.168    23758606.496    23758614.476
        39.500          27.2504
 110175710.236 8  85851203.25747  20965740.698    20965739.577    20965748.471
        51.000          43.5004
 12  3 25 12 13 20.0000000  0 21G05R02R19G26G13R03G29R18G04G23R13G02
                                G07G08R20R11R04R12G30G16G10
 112488482.361 8  87653369.16548  21405847.415    21405847.142    21405854.316
        50.250          42.7504
 113376968.521 7  88182089.446 7  21246797.758    21246796.877    21246814.465
        47.000          44.000
 112895505.234 7  87807618.537 7  21104624.459    21104624.177    21104641.238
        45.500          43.000
 129947561.623 6 101257839.62344  24728197.305    24728197.335    24728211.072
        38.750          24.5004
 113542321.805 8  88474512.59146  21606378.737    21606378.725    21606387.000
        48.000          38.2504
 103419611.138 8  80437472.803 8  19319652.828    19319652.939    19319669.370
        51.250          48.000
 121690148.690 6  94823492.06647  23156865.539    23156863.980    23156872.761
        40.250          30.0004
 124323051.386 6  96695706.153 6  23289901.910    23289898.643    23289919.364
        37.250          35.500
 125840081.450 7  98057206.95845  23946572.944    23946572.077    23946582.438
        43.750          32.2504
 126449957.913 7  98532432.85545  24062626.223    24062627.104    24062635.537
        43.500          35.5004
 120083883.383 7  93398575.017 7  22487854.062    22487853.063    22487873.473
        43.000          41.000
 113293820.850 7  88280897.96446  21559097.258    21559096.667    21559102.846
        46.750          40.0004
 115596933.524 7  90075533.23747  21997364.395    21997364.122    21997371.847
        46.250          40.0004
 126740879.246 7  98759130.55145  24117985.568    24117985.283    24117995.590
        43.000          33.2504
 119323624.906 6  92807273.838 7  22314120.816    22314120.000    22314140.638
        39.750          42.250
 119726358.332 6  93120504.773 6  22405155.182    22405156.981    22405175.745
        41.500          37.000
 116858957.950 6  90890298.870 6  21822588.138    21822586.060    21822602.998
        41.750          39.750
 109500466.269 8  85166989.710 7  20498707.767    20498707.854    20498726.978
        49.000          45.500
 125947778.168 7  98141125.16945  23967063.845    23967062.229    23967074.488
        42.000          31.2504
 124853143.032 7  97288167.26645  23758762.346    23758761.645    23758770.488
        42.750          33.5004
 110202417.111 8  85872013.72047  20970823.040    20970821.595    20970830.697
        49.750          43.2504
 12  3 25 12 13 30.0000000  0 21G05R02R19G26G13R03G29R18G04G23R13G02
                                G07G08R20R11R04R12G30G16G10
 112474008.982 8  87642091.12948  21403092.886    21403092.847    21403100.279
        48.250          42.7504
 113416425.624 7  88212778.201 7  21254191.159    21254190.976    21254208.987
        47.750          46.000
 112916145.223 7  87823671.842 7  21108482.889    21108482.754    21108499.507
        46.250          43.250
 129909738.515 6 101228367.01943  24721000.673    24721000.182    24721013.789
        39.000          21.5004
 113573106.953 7  88498500.94146  21612236.826    21612236.784    21612244.953
        47.500          38.7504
 103423392.496 8  80440413.795 8  19320358.686    19320359.615    19320375.447
        51.000          48.000
 121702100.937 7  94832805.42647  23159139.213    23159139.126    23159147.987
        43.750          36.2504
 124372201.797 6  96733934.035 6  23299105.221    23299107.221    23299127.777
        41.250          39.250
 125884025.094 6  98091448.66243  23954934.746    23954932.377    23954944.315
        37.750          21.7504
 126491539.905 6  98564834.38744  24070540.123    24070540.129    24070548.601
        39.250          29.5004
 120047081.306 5  93369951.213 6  22480959.471    22480962.265    22480978.798
        35.000          37.000
 113320412.331 7  88301618.50146  21564157.649    21564156.813    21564163.546
        47.750          39.5004
 115583876.198 7  90065358.63048  21994879.733    21994879.778    21994887.485
        47.250          42.0004
 126710128.190 5  98735168.73943  24112132.891    24112131.077    24112144.736
        35.750          22.0004
 119302732.077 6  92791023.784 7  22310215.968    22310212.478    22310234.459
        37.000          42.500
 119767523.223 6  93152521.796 6  22412859.410    22412860.951    22412879.314
        40.750          36.000
 116828408.339 7  90866537.966 7  21816880.335    21816880.971    21816898.296
        44.250          44.000
 109497793.250 8  85164910.653 8  20498207.191    20498207.668    20498227.083
        49.750          46.250
 125969858.256 7  98158330.39045  23971265.640    23971264.303    23971275.488
        42.250          30.2504
 124854648.028 7  97289339.94946  23759049.226    23759047.575    23759057.363
        44.500          36.7504
 110228860.284 8  85892618.69746  20975854.889    20975853.540    20975862.752
        48.000          41.5004
 12  3 25 12 13 40.0000000  0 21G05R02R19G26G13R03G29R18G04G23R13G02
                                G07G08R20R11R04R12G30G16G10
 112459641.020 8  87630895.31848  21400358.392    21400358.566    21400366.055
        48.000          43.0004
 113455762.466 8  88243373.508 8  21261562.303    21261562.435    21261580.599
        48.250          46.750
 112937097.351 7  87839967.919 7  21112400.137    21112399.282    21112416.511
        46.750          44.250
 129871605.326 6 101198652.83943  24713742.686    24713743.085    24713753.778
        40.750          22.7504
 113604004.428 8  88522576.89046  21618117.150    21618116.565    21618124.474
        49.000          39.5004
 103427260.967 8  80443422.591 8  19321081.438    19321082.028    19321098.121
        50.750          48.250
 121714552.317 7  94842507.80847  23161509.264    23161508.274    23161516.750
        43.000          37.0004
 124421103.675 7  96771968.776 7  23308266.963    23308267.142    23308288.449
        42.000          40.250
 125927400.080 6  98125247.31743  23963188.614    23963188.839    23963198.621
        38.750          22.0004
 126533315.265 6  98597386.54144  24078489.878    24078488.385    24078498.761
        39.250          29.0004
 120009788.625 6  93340945.835 6  22473977.373    22473977.820    22473997.588
        38.500          37.000
 113346716.019 7  88322114.86246  21569163.149    21569162.241    21569168.494
        47.250          40.0004
 115570583.343 8  90055000.56548  21992349.862    21992349.889    21992357.911
        48.750          42.2504
 126678830.515 6  98710780.90942  24106182.346    24106175.451    24106188.183
        36.250          17.7504
 119282534.139 6  92775314.298 7  22306438.832    22306435.963    22306456.861
        39.250          43.500
 119809301.992 6  93185016.358 6  22420678.876    22420679.308    22420697.406
        39.500          36.750
 116798086.676 7  90842954.483 7  21811220.139    21811218.823    21811235.933
        44.000          43.500
 109495204.857 8  85162897.463 8  20497723.872    20497723.048    20497742.312
        50.000          46.500
 125992631.555 6  98176075.82445  23975599.551    23975598.741    23975609.885
        41.000          30.2504
 124856696.282 7  97290936.00445  23759438.351    23759437.994    23759446.901
        44.500          35.7504
 110255091.672 8  85913058.73147  20980846.397    20980845.195    20980854.285
        48.750          42.2504
 12  3 25 12 13 50.0000000  0 21G05R02R19G26G13R03G29R18G04G23R13G02
                                G07G08R20R11R04R12G30G16G10
 112445341.994 8  87619753.21348  21397637.056    21397637.602    21397645.189
        48.000          42.5004
 113495065.503 8  88273942.513 8  21268929.061    21268928.119    21268945.834
        48.500          46.750
 112958259.730 7  87856427.530 7  21116355.958    21116355.589    21116372.111
        47.500          44.750
 129833257.770 6 101168771.65443  24706446.577    24706446.046    24706457.987
        41.000          23.0004
 113635019.887 8  88546744.77146  21624019.389    21624018.570    21624026.989
        49.750          39.7504
 103431212.812 8  80446496.245 8  19321819.922    19321820.348    19321836.357
        51.000          48.000
 121727326.923 7  94852462.03747  23163940.035    23163939.687    23163948.360
        43.750          37.2504
 124469833.096 6  96809869.381 6  23317396.338    23317396.497    23317416.431
        41.750          40.000
 125970421.578 6  98158770.53843  23971376.347    23971373.176    23971384.298
        38.250          22.2504
 126575254.790 6  98630066.64144  24086470.956    24086468.888    24086479.692
        39.500          29.5004
 119972218.260 6  93311724.462 6  22466943.421    22466941.880    22466961.870
        38.750          37.250
 113372847.150 7  88342476.76246  21574135.723    21574134.838    21574141.515
        47.750          40.5004
 115557188.508 8  90044563.03348  21989801.089    21989800.847    21989809.268
        49.000          42.2504
 126647207.807 6  98686139.87142  24100162.873    24100160.265    24100171.861
        37.000          17.7504
 119262805.240 6  92759969.612 7  22302769.429    22302746.570    22302767.429
        39.500          43.750
 119851511.220 6  93217845.728 6  22428578.629    22428577.277    22428595.579
        39.500          36.000
 116767899.007 7  90819475.201 7  21805583.136    21805581.460    21805598.518
        42.750          43.500
 109492734.363 8  85160975.978 8  20497260.906    20497260.540    20497279.972
        50.500          46.750
 126015881.567 7  98194192.73844  23980023.282    23980022.950    23980035.220
        42.000          29.2504
 124859140.397 7  97292840.51745  23759903.644    23759902.409    23759911.993
        45.000          35.7504
 110281221.390 8  85933419.55047  20985818.734    20985817.745    20985826.696
        49.000          42.7504
 12  3 25 12 14  0.0000000  0 21G05R02R19G26G13R03G29R18G04G23R13G02
                                G07G08R20R11R04R12G30G16G10
 112431108.041 8  87608661.81848  21394929.238    21394928.923    21394936.610
        48.250          42.5004
 113534385.034 8  88304524.346 8  21276296.886    21276296.296    21276314.358
        48.500          46.500
 112979576.043 7  87873006.872 7  21120340.431    21120340.161    21120357.333
        47.250          44.750
 129794817.444 6 101138818.19543  24699131.149    24699130.541    24699142.035
        40.250          22.5004
 113666132.908 8  88570988.67246  21629939.388    21629939.097    21629947.224
        49.500          39.7504
 103435250.565 8  80449636.716 8  19322574.551    19322574.452    19322590.911
        51.000          48.000
 121740300.401 7  94862571.23347  23166407.411    23166408.715    23166416.956
        44.000          36.7504
 124518497.031 6  96847719.059 6  23326512.481    23326512.664    23326534.075
        41.750          39.750
 126013287.504 6  98192172.51143  23979531.236    23979531.482    23979540.652
        38.250          22.2504
 126617300.089 6  98662829.14144  24094471.323    24094470.708    24094480.139
        39.250          29.7504
 119934545.727 6  93282423.646 6  22459885.770    22459886.690    22459905.769
        38.750          37.500
 113398928.833 8  88362800.14646  21579098.478    21579097.749    21579104.432
        48.000          40.5004
 115543789.761 8  90034122.45848  21987251.244    21987251.154    21987259.374
        49.250          42.2504
 126615448.896 6  98661392.72143  24094118.761    24094115.775    24094126.996
        37.250          18.7504
 119243353.147 6  92744840.237 7  22299115.130    22299109.704    22299130.003
        39.500          44.000
 119893976.220 6  93250874.032 6  22436524.325    22436524.026    22436544.349
        40.000          36.000
 116737799.984 6  90796064.856 7  21799960.351    21799960.292    21799977.934
        41.500          44.000
 109490386.983 8  85159150.244 8  20496821.473    20496821.068    20496840.686
        50.000          47.000
 126039412.364 7  98212528.42844  23984501.870    23984500.911    23984512.671
        42.750          29.7504
 124861829.617 7  97294936.01546  23760414.322    23760414.559    23760423.208
        45.750          36.0004
 110307337.609 8  85953769.83647  20990788.352    20990787.566    20990796.512
        49.500          42.7504
 12  3 25 12 14 10.0000000  0 21G05R02R19G26G13R03G29R18G04G23R13G02
                                G07G08R20R11R04R12G30G16G10
 112416944.568 8  87597625.34848  21392233.633    21392233.720    21392241.251
        48.500          42.7504
 113573740.143 8  88335133.860 8  21283672.752    21283671.658    21283689.396
        48.250          46.500
 113001031.258 7  87889694.243 7  21124351.096    21124351.459    21124368.421
        47.500          45.250
 129756340.147 6 101108835.87143  24691808.689    24691807.804    24691819.454
        39.750          23.0004
 113697334.944 8  88595301.94346  21635877.401    21635876.873    21635884.803
        50.000          39.7504
 103439379.429 8  80452848.053 8  19323345.485    19323345.941    19323362.079
        51.000          47.750
 121753429.980 7  94872802.07047  23168907.248    23168906.502    23168915.400
        44.250          37.0004
 124567145.029 6  96885556.342 6  23335624.754    23335626.184    23335646.153
        41.000          39.500
 126056079.872 6  98225517.17743  23987675.269    23987673.203    23987684.269
        38.250          21.5004
 126659425.512 6  98695654.12345  24102488.205    24102487.269    24102496.836
        38.250          30.0004
 119896841.404 6  93253098.098 6  22452825.585    22452826.841    22452844.463
        39.250          37.500
 113425015.830 8  88383127.65846  21584062.936    21584062.169    21584068.296
        48.250          40.2504
 115530426.602 8  90023709.60848  21984708.260    21984708.398    21984716.301
        49.250          42.5004
 126583630.466 6  98636599.15543  24088060.543    24088063.010    24088071.014
        37.250          19.0004
 119224104.959 6  92729869.444 7  22295506.081    22295509.613    22295529.915
        39.500          44.000
 119936628.064 6  93284047.656 6  22444505.775    22444505.853    22444525.226
        39.500          36.000
 116707779.613 6  90772715.669 7  21794355.147    21794354.301    21794372.034
        40.500          44.000
 109488164.941 8  85157421.986 8  20496405.289    20496405.400    20496424.688
        49.000          46.750
 126063147.678 7  98231023.49044  23989017.389    23989017.785    23989028.787
        42.750          29.0004
 124864703.782 7  97297175.62446  23760962.034    23760961.603    23760970.494
        45.750          36.2504
 110333477.514 8  85974138.58847  20995762.943    20995761.639    20995770.845
        49.500          43.0004
 12  3 25 12 14 20.0000000  0 21G05R02R19G26G13R03G29R18G04G23R13G02
                                G07G08R20R11R04R12G30G16G10
 112402848.408 8  87586641.32748  21389550.853    21389551.204    21389558.929
        48.750          42.7504
 113613134.681 8  88365774.037 8  21291052.578    21291054.383    21291072.271
        48.250          46.500
 113022616.053 7  87906482.405 7  21128387.325    21128386.581    21128403.166
        47.250          45.250
 129717835.465 6 101078832.24844  24684482.729    24684481.158    24684492.074
        39.750          25.5004
 113728622.634 8  88619681.95146  21641831.294    21641830.503    21641838.681
        50.500          39.7504
 103443598.034 8  80456129.185 8  19324133.930    19324133.933    19324150.323
        51.000          47.750
 121766698.978 7  94883141.54047  23171432.682    23171431.899    23171440.288
        43.750          36.7504
 124615785.041 6  96923387.413 6  23344736.799    23344737.587    23344758.552
        41.250          39.500
 126098817.174 6  98258818.91443  23995808.602    23995806.879    23995817.410
        37.750          22.0004
 126701623.399 6  98728535.52145  24110519.165    24110516.922    24110525.721
        38.750          30.0004
 119859122.572 6  93223761.261 6  22445764.813    22445763.803    22445781.920
        39.250          37.750
 113451118.561 8  88403467.43946  21589030.656    21589029.766    21589035.839
        48.500          40.2504
 115517108.491 8  90013331.86848  21982173.566    21982174.100    21982181.906
        49.500          42.5004
 126551771.021 6  98611773.63043  24082000.841    24081998.769    24082007.793
        37.250          19.0004
 119205037.948 6  92715039.566 7  22291938.791    22291943.737    22291964.231
        39.750          43.750
 119979446.014 6  93317350.488 6  22452520.927    22452518.835    22452538.978
        40.000          36.000
 116677829.874 6  90749421.448 7  21788762.956    21788761.709    21788778.776
        41.000          44.250
 109486068.019 8  85155791.052 8  20496013.763    20496012.756    20496031.888
        49.000          47.000
 126087064.128 7  98249659.68944  23993568.451    23993570.502    23993580.317
        42.500          29.2504
 124867745.126 7  97299545.51046  23761540.934    23761540.109    23761549.394
        45.750          36.5004
 110359648.933 8  85994531.89347  21000743.392    21000742.064    21000750.839
        49.500          43.2504
 12  3 25 12 14 30.0000000  0 21G05R02R19G26G13R03G29R18G04G23R13G02
                                G07G08R20R11R04R12G30G16G10
 112388817.770 8  87575708.36748  21386881.417    21386881.303    21386889.152
        48.750          43.2504
 113652574.255 8  88396449.246 8  21298446.269    21298445.256    21298463.373
        48.500          46.500
 113044317.533 7  87923361.323 7  21132444.029    21132443.109    21132459.879
        47.750          45.250
 129679331.622 6 101048829.26044  24677154.881    24677154.006    24677163.272
        41.000          24.7504
 113759985.337 8  88644120.41446  21647799.760    21647798.747    21647806.718
        50.250          39.7504
 103447903.132 8  80459477.590 8  19324936.727    19324938.355    19324954.474
        50.750          48.000
 121780079.406 7  94893567.85747  23173977.896    23173978.175    23173986.743
        44.250          37.2504
 124664441.552 6  96961231.314 6  23353850.802    23353853.083    23353874.605
        40.500          40.000
 126141541.588 6  98292110.65143  24003936.947    24003939.579    24003949.709
        37.250          22.2504
 126743874.867 6  98761458.70645  24118558.738    24118557.839    24118566.044
        38.250          30.5004
 119821424.634 6  93194440.681 6  22438706.776    22438704.074    22438720.902
        39.250          37.750
 113477263.106 8  88423839.79546  21594005.925    21594004.828    21594011.300
        48.250          40.2504
 115503852.064 8  90003002.18548  21979651.820    21979651.409    21979659.282
        49.000          42.5004
 126519909.273 6  98586946.33543  24075937.502    24075934.786    24075947.977
        36.750          19.0004
 119186106.781 6  92700315.339 7  22288398.845    22288403.162    22288424.078
        39.750          43.250
 120022386.769 6  93350748.820 6  22460556.753    22460554.538    22460574.609
        41.000          36.250
 116647940.850 6  90726174.436 7  21783180.152    21783179.900    21783197.765
        40.500          44.250
 109484091.198 8  85154253.517 8  20495643.031    20495642.446    20495661.306
        49.250          46.750
 126111114.787 7  98268400.46644  23998147.298    23998144.780    23998156.091
        42.750          29.2504
 124870915.170 7  97302015.67946  23762144.428    23762143.732    23762152.957
        45.500          36.7504
 110385867.001 8  86014961.54947  21005732.805    21005731.096    21005739.973
        49.500          43.0004
 12  3 25 12 14 40.0000000  0 21G05R02R19G26G13R03G29R18G04G23R13G02
                                G07G08R20R11R04R12G30G16G10
 112374853.315 8  87564826.97948  21384224.396    21384224.174    21384231.719
        49.000          43.7504
 113692136.847 8  88427220.125 8  21305859.351    21305859.244    21305877.135
        49.000          46.500
 113066048.844 7  87940263.451 7  21136506.118    21136505.711    21136522.430
        47.250          44.500
 129641045.783 6 101018996.17643  24669869.583    24669870.269    24669879.542
        39.000          22.2504
 113791374.769 8  88668579.69146  21653772.798    21653771.956    21653780.089
        50.750          40.2504
 103452300.761 8  80462897.961 8  19325759.015    19325759.957    19325776.176
        50.750          48.000
 121793362.543 7  94903918.36247  23176506.112    23176505.614    23176514.260
        43.500          37.2504
 124713309.797 6  96999239.904 6  23363006.847    23363007.737    23363029.220
        41.000          39.500
 126184597.196 6  98325660.44443  24012133.723    24012131.765    24012142.947
        37.250          22.2504
 126786062.267 6  98794332.00844  24126584.986    24126584.977    24126593.788
        37.000          28.5004
 119784042.166 6  93165365.472 6  22431698.992    22431703.867    22431721.863
        39.250          37.250
 113503671.486 7  88444417.75446  21599030.455    21599030.000    21599036.565
        47.500          40.2504
 115490815.056 8  89992843.48848  21977170.800    21977170.560    21977178.562
        49.250          42.5004
 126488365.902 5  98562367.11443  24069932.066    24069933.382    24069944.078
        35.000          18.0004
 119166975.911 6  92685435.803 7  22284822.971    22284825.402    22284846.945
        39.750          43.250
 120065134.045 6  93383996.681 6  22468554.385    22468554.625    22468575.134
        40.250          36.250
 116618040.522 6  90702918.621 7  21777596.548    21777596.344    21777613.510
        41.750          43.750
 109482227.951 8  85152804.330 8  20495294.306    20495293.506    20495313.250
        49.250          46.750
 126134950.139 7  98286973.43644  24002681.938    24002679.732    24002691.813
        42.750          29.7504
 124873937.671 7  97304370.88445  23762719.391    23762718.413    23762728.301
        44.750          35.5004
 110412282.759 8  86035545.24747  21010759.194    21010757.608    21010766.812
        49.250          42.2504
 12  3 25 12 14 50.0000000  0 21G05R02R19G26G13R03G29R18G04G23R13G02
                                G07G08R20R11R04R12G30G16G10
 112360954.851 8  87553997.01148  21381579.495    21381579.402    21381586.800
        49.500          44.0004
 113731829.932 8  88458092.507 8  21313298.192    21313297.853    21313315.676
        49.250          46.750
 113087802.906 7  87957183.270 7  21140572.266    21140571.913    21140589.085
        46.000          43.250
 129602997.697 6 100989348.33944  24662628.165    24662629.175    24662638.762
        39.000          24.2504
 113822785.294 8  88693055.40046  21659749.937    21659749.182    21659756.766
        50.250          39.7504
 103456790.746 8  80466390.173 8  19326598.695    19326598.272    19326614.749
        51.000          48.250
 121806530.096 7  94914178.79547  23179011.375    23179011.693    23179019.665
        44.250          36.2504
 124762407.848 6  97037427.209 6  23372206.947    23372205.928    23372227.659
        41.750          40.000
 126228015.840 6  98359493.14643  24020393.650    24020393.266    24020403.666
        37.500          22.5004
 126828174.977 6  98827147.07344  24134598.624    24134598.807    24134605.933
        38.000          27.7504
 119747001.478 6  93136556.091 6  22424765.854    22424765.893    22424784.390
        39.000          38.000
 113530364.478 8  88465217.47746  21604110.475    21604109.587    21604116.033
        48.250          40.5004
 115478010.322 8  89982865.77248  21974733.853    21974733.820    21974741.972
        49.500          42.5004
 126457169.804 6  98538058.50643  24063996.415    24063997.287    24064007.459
        36.000          18.0004
 119147615.772 6  92670377.930 7  22281200.105    22281205.100    22281226.472
        39.750          44.000
 120107657.926 6  93417070.794 6  22476511.645    22476511.381    22476531.224
        39.500          35.250
 116588121.892 7  90679648.573 7  21772009.996    21772008.776    21772027.018
        42.000          44.500
 109480475.612 8  85151441.406 8  20494966.072    20494965.763    20494984.950
        50.250          47.250
 126158538.074 6  98305353.68044  24007170.506    24007168.896    24007181.913
        41.000          27.5004
 124876786.911 7  97306591.07946  23763262.138    23763260.687    23763270.397
        45.750          37.7504
 110438909.715 8  86056293.51847  21015825.789    21015824.580    21015833.784
        49.000          42.2504
 12  3 25 12 15  0.0000000  0 21G05R02R19G26G13R03G29R18G04G23R13G02
                                G07G08R20R11R04R12G30G16G10
 112347161.546 8  87543248.93448  21378954.599    21378954.674    21378962.141
        49.750          44.5004
 113771663.924 8  88489074.435 7  21320761.657    21320762.823    21320780.895
        48.000          44.750
 113109571.286 7  87974114.157 7  21144642.743    21144641.409    21144658.528
        46.250          43.000
 129565378.386 6 100960034.59244  24655470.437    24655470.347    24655479.524
        39.000          26.5004
 113854146.029 8  88717492.28246  21665717.594    21665717.309    21665725.221
        48.500          38.5004
 103461382.963 8  80469961.851 8  19327457.888    19327456.620    19327472.983
        50.750          48.500
 121819490.387 7  94924277.66347  23181478.089    23181477.132    23181485.697
        42.250          35.0004
 124811916.025 7  97075933.546 7  23381479.240    23381480.172    23381501.083
        42.750          40.500
 126272028.374 7  98393788.51645  24028770.564    24028768.010    24028778.689
        43.500          31.0004
 126870086.346 6  98859805.22244  24142574.554    24142574.884    24142581.938
        40.000          27.7504
 119710471.466 6  93108143.841 6  22417924.530    22417925.447    22417943.645
        39.000          37.750
 113557514.938 8  88486373.68646  21609276.369    21609275.836    21609282.467
        48.500          41.2504
 115465508.110 7  89973123.76648  21972355.468    21972354.461    21972362.249
        45.750          37.7504
 126426514.904 6  98514171.55043  24058165.661    24058162.921    24058174.158
        41.000          23.7504
 119127817.795 6  92654979.532 7  22277485.961    22277503.175    22277523.936
        39.500          42.750
 120149732.697 6  93449795.564 6  22484385.934    22484386.167    22484405.462
        41.750          36.000
 116558190.011 6  90656368.196 7  21766419.209    21766419.598    21766436.905
        40.500          43.500
 109478791.821 8  85150131.754 7  20494650.942    20494650.442    20494670.009
        50.000          45.500
 126181643.436 6  98323357.75845  24011568.467    24011565.838    24011577.988
        41.500          30.5004
 124879251.901 7  97308511.81945  23763729.733    23763729.430    23763738.208
        42.000          32.0004
 110465830.659 8  86077270.82947  21020948.987    21020947.569    21020956.916
        50.250          43.2504
 12  3 25 12 15 10.0000000  0 21G05R02R19G26G13R03G29R18G04G23R13G02
                                G07G08R20R11R04R12G30G16G10
 112333472.600 8  87532582.13248  21376350.212    21376349.666    21376357.203
        49.000          42.2504
 113811803.873 8  88520294.308 8  21328284.766    21328285.407    21328302.966
        48.250          46.500
 113131188.811 7  87990927.715 7  21148683.238    21148682.687    21148699.487
        46.000          44.500
 129528598.567 7 100931375.10044  24648471.173    24648470.880    24648481.927
        42.750          24.7504
 113885373.520 8  88741825.32646  21671660.023    21671659.273    21671667.374
        48.750          38.5004
 103067169.713 8  80163351.486 8  19328334.185    19328336.304    19328352.796
        50.500          48.500
 121831844.207 7  94933903.94647  23183829.052    23183828.839    23183836.901
        43.500          34.7504
 124862206.393 7  97115048.126 6  23390902.091    23390902.232    23390921.794
        43.500          36.250
 126317300.234 7  98429065.20945  24037384.237    24037382.798    24037393.594
        44.500          30.2504
 126911585.821 6  98892142.38245  24150472.386    24150472.332    24150479.734
        41.500          33.2504
 119675023.071 7  93080572.764 7  22411287.763    22411286.381    22411305.883
        44.500          44.500
 113585552.048 7  88508220.71046  21614612.042    21614611.494    21614617.748
        47.250          39.0004
 115453615.831 8  89963856.98347  21970092.035    21970091.576    21970099.344
        48.000          40.7504
 126397021.722 7  98491189.76945  24052552.027    24052551.352    24052561.176
        42.750          32.5004
 119106945.512 5  92638745.499 6  22273582.409    22273597.812    22273620.617
        33.250          37.500
 120190758.470 5  93481704.441 5  22492046.188    22492064.290    22492082.697
        35.000          31.250
 116528100.309 7  90632965.050 7  21760801.386    21760801.023    21760817.760
        44.500          44.500
 109477168.390 8  85148869.022 7  20494345.823    20494346.554    20494365.888
        49.000          45.750
 126203602.566 6  98340468.70443  24015748.138    24015744.636    24015757.758
        37.500          18.0004
 124880812.061 6  97309727.44944  23764027.529    23764025.014    23764034.583
        39.000          26.2504
 110493344.324 8  86098710.02047  21026184.592    21026183.513    21026192.507
        50.750          42.7504
 12  3 25 12 15 20.0000000  0 21G05R02R19G26G13R03G29R18G04G23R13G02
                                G07G08R20R11R04R12G30G16G10
 112319811.897 8  87521937.42548  21373750.388    21373750.280    21373757.717
        49.500          42.7504
 113852230.381 8  88551737.130 7  21335861.432    21335861.103    21335879.324
        49.000          45.750
 113152693.391 7  88007653.495 7  21152702.832    21152702.957    21152720.034
        47.000          44.500
 129492231.359 7 100903037.00344  24641551.316    24641550.914    24641561.413
        43.750          25.5004
 113916629.249 8  88766180.43346  21677607.567    21677606.916    21677615.199
        49.250          38.5004
 103071965.108 8  80167081.236 8  19329234.926    19329235.568    19329252.014
        50.750          48.750
 121843819.486 7  94943235.32047  23186107.766    23186107.559    23186116.094
        44.500          35.2504
 124912881.266 7  97154461.887 6  23400393.698    23400395.071    23400413.996
        44.000          36.750
 126363308.900 7  98464916.10944  24046139.523    24046138.929    24046150.663
        42.500          28.5004
 126952965.131 6  98924385.98945  24158347.241    24158346.762    24158354.721
        40.500          32.7504
 119640268.110 7  93053541.144 7  22404778.876    22404778.001    22404797.413
        44.000          44.750
 113614093.380 7  88530460.70946  21620043.334    21620042.651    21620049.387
        47.750          40.2504
 115442168.035 8  89954936.62248  21967913.218    21967913.407    21967921.346
        48.500          41.2504
 126368245.626 7  98468766.86545  24047075.940    24047075.076    24047085.590
        42.500          33.5004
 119085488.782 5  92622056.974 6  22269591.293    22269586.574    22269607.967
        34.500          38.250
 120231255.640 5  93513202.200 5  22499646.506    22499641.772    22499661.450
        35.000          31.500
 116048843.018 7  90260209.394 7  21755150.553    21755152.759    21755169.533
        45.500          45.250
 109475696.342 8  85147724.092 7  20494070.742    20494071.168    20494090.034
        50.000          46.000
 126224960.854 6  98357111.51043  24019809.996    24019809.966    24019819.328
        38.000          18.2504
 124881951.562 6  97310615.38044  23764244.333    23764243.751    23764251.285
        39.250          26.7504
 110521267.509 8  86120468.34447  21031498.147    21031497.166    21031506.385
        51.000          43.2504
 12  3 25 12 15 30.0000000  0 21G05R02R19G26G13R03G29R18G04G23R13G02
                                G07G08R20R11R04R12G30G16G10
 112306222.361 8  87511348.18048  21371164.186    21371164.117    21371171.438
        49.750          42.5004
 113892802.083 7  88583292.896 7  21343462.436    21343464.094    21343481.680
        46.750          45.000
 113174222.546 7  88024398.387 7  21156727.536    21156727.392    21156744.196
        47.250          44.750
 129456125.435 7 100874902.51144  24634680.394    24634678.373    24634689.279
        42.750          25.0004
 113947897.758 8  88790545.49746  21683557.985    21683557.443    21683565.327
        49.250          38.0004
 103076858.042 8  80170886.840 8  19330153.220    19330153.238    19330169.469
        51.000          48.750
 121855665.334 7  94952465.83947  23188361.189    23188361.812    23188369.922
        44.750          35.5004
 124963813.532 7  97194075.845 6  23409936.238    23409936.229    23409955.728
        43.250          36.000
 126409722.071 7  98501082.17244  24054970.935    24054971.388    24054981.944
        42.250          29.0004
 126994257.893 6  98956562.11045  24166204.685    24166204.364    24166212.707
        40.500          32.5004
 119605883.280 7  93026797.459 7  22398338.372    22398339.166    22398358.062
        45.250          43.750
 113642952.971 8  88552948.68546  21625534.618    21625534.426    21625540.632
        48.250          40.2504
 115430961.991 8  89946204.65148  21965780.878    21965780.797    21965788.694
        49.000          41.7504
 126339849.295 7  98446639.89045  24041672.687    24041671.563    24041682.089
        42.250          32.5004
 119063773.195 5  92605167.110 6  22265525.864    22265525.906    22265546.391
        34.500          38.250
 120271490.947 6  93544496.318 5  22507176.582    22507170.316    22507190.900
        36.250          32.500
 116018687.185 7  90236754.860 7  21749498.032    21749499.072    21749516.634
        45.500          45.250
 109474324.047 8  85146656.758 7  20493814.399    20493814.246    20493833.444
        49.750          46.000
 126246033.131 6  98373531.42343  24023821.411    24023819.663    24023830.096
        38.250          20.0004
 124882884.713 6  97311342.51344  23764420.665    23764420.038    23764428.280
        39.250          26.5004
 110549423.971 8  86142408.43247  21036856.232    21036855.213    21036863.949
        51.500          43.7504
 12  3 25 12 15 40.0000000  0 21G05R02R19G26G13R03G29R18G04G23R13G02
                                G07G08R20R11R04R12G30G16G10
 112292707.401 8  87500817.04748  21368592.653    21368592.143    21368599.761
        49.250          42.5004
 113933494.055 7  88614942.191 7  21351095.611    21351089.582    21351107.663
        46.500          45.250
 113195809.138 7  88041187.955 7  21160763.879    21160762.539    21160779.903
        47.250          44.750
 129420210.213 7 100846916.68744  24627846.646    24627844.751    24627854.680
        42.500          24.7504
 113979196.454 8  88814934.08446  21689513.731    21689513.392    21689520.992
        49.250          37.7504
 103081849.858 8  80174769.361 8  19331088.822    19331089.184    19331105.751
        51.000          48.750
 121867454.830 7  94961652.46847  23190604.952    23190605.156    23190613.850
        44.750          35.5004
 125014940.097 6  97233840.899 6  23419513.792    23419513.447    23419534.094
        41.750          35.750
 126456426.185 7  98537474.93845  24063859.497    24063858.738    24063869.471
        42.750          30.0004
 127035503.672 6  98988701.65345  24174052.754    24174052.990    24174060.992
        39.500          32.5004
 119571770.673 7  93000265.457 7  22391951.818    22391950.784    22391969.719
        44.000          44.250
 113672059.630 8  88575629.19346  21631074.165    21631072.951    21631079.936
        48.750          40.2504
 115419946.013 8  89937620.77748  21963684.759    21963684.391    21963692.395
        49.000          41.7504
 126311726.393 6  98424725.97145  24036321.404    24036318.982    24036331.378
        41.250          31.5004
 119041913.297 5  92588165.004 6  22261442.361    22261437.564    22261458.673
        34.500          38.500
 120311571.329 6  93575669.918 5  22514658.706    22514671.954    22514690.937
        36.750          32.750
 115988532.842 7  90213301.489 7  21743845.535    21743846.389    21743863.708
        45.750          45.500
 109473054.639 8  85145669.446 8  20493576.504    20493576.546    20493595.853
        50.000          46.000
 126266937.642 6  98389820.62843  24027798.760    24027799.587    24027806.983
        38.250          20.2504
 124883704.565 6  97311981.35944  23764577.861    23764577.187    23764587.302
        39.250          26.5004
 110577765.537 8  86164492.76747  21042249.613    21042248.402    21042257.212
        51.500          43.7504
 12  3 25 12 15 50.0000000  0 21G05R02R19G26G13R03G29R18G04G23R13G02
                                G07G08R20R11R04R12G30G16G10
 112279262.472 8  87490340.47648  21366034.224    21366034.002    21366041.326
        49.500          42.7504
 113974282.965 7  88646666.873 7  21358733.277    21358733.510    21358751.198
        46.500          44.750
 113217475.724 7  88058039.737 7  21164813.332    21164813.203    21164830.318
        47.250          45.000
 129384412.020 7 100819022.04844  24621033.814    24621032.864    24621044.334
        43.500          26.0004
 114010542.042 8  88839359.20746  21695478.420    21695478.234    21695486.139
        48.750          37.7504
 103086936.329 8  80178725.501 8  19332042.977    19332043.226    19332059.397
        51.000          49.000
 121879250.126 7  94970843.59047  23192849.247    23192849.600    23192858.069
        44.250          36.0004
 125066194.132 6  97273705.111 6  23429114.768    23429115.449    23429135.625
        41.250          36.250
 126503309.493 7  98574007.35744  24072780.334    24072781.056    24072790.656
        42.750          29.7504
 127076742.922 6  99020836.08145  24181901.866    24181901.215    24181908.761
        41.750          32.5004
 119537837.111 7  92973872.720 7  22385595.670    22385595.667    22385615.291
        44.500          44.250
 113701338.739 8  88598444.06946  21636645.853    21636644.815    21636651.216
        48.250          40.2504
 115409070.651 8  89929146.47348  21961615.427    21961614.944    21961622.904
        48.750          42.2504
 126283774.591 6  98402945.36945  24031001.473    24031000.442    24031011.441
        41.750          32.0004
 119020014.827 5  92571132.886 6  22257339.249    22257343.554    22257364.308
        34.750          38.750
 120351597.931 5  93606801.686 5  22522152.495    22522161.807    22522181.971
        35.750          32.500
 115958398.065 7  90189863.329 7  21738194.825    21738197.031    21738214.149
        46.000          45.500
 109471891.727 8  85144764.957 7  20493358.885    20493358.882    20493378.111
        50.250          45.750
 126287785.696 6  98406065.87143  24031767.113    24031764.016    24031774.859
        38.250          20.2504
 124884500.780 6  97312601.79844  23764727.775    23764728.324    23764737.261
        39.250          26.5004
 110606243.388 8  86186683.29147  21047668.835    21047667.552    21047676.510
        51.250          43.2504
 12  3 25 12 16  0.0000000  0 21G05R02R19G26G13R03G29R18G04G23R13G02
                                G07G08R20R11R04R12G30G16G10
 112265893.639 8  87479923.21148  21363489.925    21363490.033    21363497.458
        49.750          43.0004
 114015126.485 7  88678434.034 7  21366393.744    21366387.506    21366405.574
        47.000          45.250
 113239269.894 7  88074990.758 7  21168888.485    21168887.607    21168904.515
        47.500          45.000
 129348633.399 6 100791142.59244  24614226.070    24614223.570    24614235.417
        40.750          25.0004
 114041954.926 8  88863836.77346  21701456.566    21701455.892    21701463.575
        49.000          37.7504
 103092117.653 8  80182755.414 8  19333013.936    19333015.105    19333030.973
        51.250          49.000
 121891156.634 7  94980121.38747  23195115.363    23195115.258    23195123.571
        44.500          36.2504
 125117487.437 7  97313599.849 6  23438725.983    23438724.804    23438745.292
        42.000          37.000
 126550207.817 7  98610551.46944  24081705.929    24081703.108    24081714.920
        42.750          29.2504
 127118025.521 7  99053004.30545  24189757.582    24189756.452    24189765.887
        43.000          32.5004
 119503939.999 7  92947508.321 7  22379247.837    22379247.789    22379267.483
        44.250          44.750
 113730687.694 8  88621313.37946  21642230.261    21642229.595    21642236.086
        48.750          39.7504
 115398259.387 8  89920722.11448  21959558.302    21959557.346    21959565.443
        49.250          42.0004
 126255839.537 7  98381177.82245  24025686.914    24025685.247    24025695.926
        42.000          33.0004
 118998240.237 5  92554197.125 6  22253272.384    22253270.160    22253291.037
        34.750          38.750
 120391720.985 5  93638008.477 5  22529675.760    22529670.220    22529689.601
        35.750          32.250
 115928325.295 7  90166473.406 7  21732559.869    21732559.497    21732576.654
        45.500          45.500
 109470837.348 8  85143944.886 7  20493161.445    20493161.073    20493180.436
        50.250          45.750
 126308744.206 6  98422397.13543  24035753.978    24035752.545    24035763.853
        38.250          20.2504
 124885403.167 6  97313304.94244  23764899.946    23764900.255    23764909.587
        40.000          27.0004
 110634784.465 8  86208923.08547  21053099.740    21053098.763    21053107.700
        51.750          43.7504
 12  3 25 12 16 10.0000000  0 21G05R02R19G26G13R03G29R18G04G23R13G02
                                G07G08R20R11R04R12G30G16G10
 112252592.570 8  87469558.74248  21360959.197    21360958.804    21360966.140
        49.750          43.0004
 114056039.694 7  88710255.398 7  21374056.224    21374054.752    21374073.174
        47.500          44.750
 113261169.230 7  88092023.563 7  21172981.435    21172981.363    21172998.094
        47.250          44.750
 129312897.670 7 100763296.58844  24607425.551    24607422.661    24607433.729
        42.250          24.7504
 114073429.763 8  88888362.60746  21707445.574    21707445.202    21707453.099
        49.500          37.7504
 103097390.514 8  80186856.526 8  19334005.065    19334003.845    19334020.054
        51.000          49.000
 121903134.297 7  94989454.63147  23197395.554    23197394.766    23197402.881
        45.000          36.5004
 125168839.745 7  97353540.483 6  23448345.633    23448345.222    23448364.016
        42.750          37.250
 126597169.973 7  98647145.31144  24090642.250    24090640.931    24090652.329
        42.000          28.7504
 127159338.239 7  99085195.99845  24197619.565    24197618.093    24197627.098
        42.250          32.2504
 119470124.173 7  92921207.169 7  22372915.957    22372915.420    22372934.400
        45.000          44.250
 113760133.642 8  88644258.25846  21647833.445    21647832.857    21647839.402
        48.500          39.7504
 115387536.741 8  89912366.81348  21957517.063    21957517.165    21957525.218
        49.500          42.0004
 126227969.099 6  98359460.62345  24020382.236    24020381.235    24020391.956
        41.250          31.0004
 118976534.631 5  92537314.998 6  22249213.341    22249213.014    22249232.054
        35.000          38.500
 120431891.796 5  93669252.416 5  22537198.596    22537187.687    22537208.243
        35.250          32.250
 115898293.289 7  90143115.174 7  21726931.664    21726929.560    21726946.723
        45.250          45.500
 109469891.536 8  85143209.258 7  20492983.916    20492984.219    20493002.920
        50.500          45.750
 126329758.381 6  98438771.79343  24039752.783    24039750.217    24039762.308
        39.000          19.5004
 124886371.114 6  97314059.19444  23765085.590    23765083.014    23765093.183
        40.000          26.5004
 110663410.850 8  86231229.34847  21058547.626    21058546.334    21058555.313
        52.000          43.5004
 12  3 25 12 16 20.0000000  0 21G05R02R19G26G13R03G29R18G04G23R13G02
                                G07G08R20R11R04R12G30G16G10
 112239357.960 8  87459246.05748  21358440.883    21358440.763    21358447.871
        50.000          43.5004
 114096876.674 7  88742017.430 8  21381710.954    21381707.716    21381725.988
        47.750          47.000
 113283322.299 7  88109253.715 7  21177122.336    21177122.333    21177139.658
        47.250          45.000
 129276821.522 7 100735185.30344  24600560.013    24600559.377    24600569.501
        43.250          26.2504
 114105054.972 8  88913005.62446  21713463.614    21713463.623    21713471.546
        49.750          38.7504
 103102743.040 8  80191019.599 8  19335006.030    19335007.604    19335023.547
        50.750          48.750
 121915550.537 7  94999129.62647  23199757.061    23199757.481    23199765.318
        45.500          36.5004
 125219900.546 7  97393254.361 6  23457910.107    23457910.158    23457928.865
        44.000          37.750
 126643579.407 7  98683308.45744  24099474.697    24099472.008    24099482.761
        44.000          29.5004
 127200887.617 7  99117572.11945  24205526.210    24205525.050    24205532.868
        43.750          32.2504
 119435868.330 7  92894563.743 7  22366500.911    22366500.254    22366519.249
        45.000          44.500
 113789275.001 7  88666965.79846  21653379.752    21653378.184    21653384.786
        47.500          39.0004
 115376628.904 8  89903867.20847  21955441.762    21955441.465    21955449.425
        48.250          40.7504
 126199594.474 6  98337350.52545  24014982.255    24014981.739    24014992.622
        41.750          32.5004
 118955492.308 5  92520948.775 6  22245280.034    22245275.504    22245297.458
        34.500          39.000
 120472677.517 5  93700974.636 5  22544827.562    22544821.236    22544839.263
        35.500          31.500
 115868434.257 7  90119891.483 7  21721332.312    21721331.886    21721349.262
        44.250          45.250
 109469075.751 8  85142574.755 8  20492831.073    20492831.214    20492850.479
        50.000          46.000
 126351452.050 6  98455675.91643  24043881.324    24043879.666    24043890.102
        37.750          19.5004
 124887899.721 6  97315250.33244  23765376.571    23765373.798    23765383.529
        39.000          26.7504
 110691849.293 8  86253389.16147  21063959.185    21063958.031    21063966.530
        51.500          43.2504
 12  3 25 12 16 30.0000000  0 21G05R02R19G26G13R03G29R18G04G23R13G02
                                G07G08R20R11R04R12G30G16G10
 112226188.804 8  87448984.37548  21355934.846    21355934.354    21355941.678
        49.000          41.2504
 114137592.265 8  88773685.083 7  21389335.038    21389337.710    21389355.325
        48.750          46.000
 113305763.516 7  88126707.954 7  21181318.303    21181317.878    21181334.549
        47.000          44.750
 129240310.892 7 100706735.46544  24593610.749    24593612.844    24593622.273
        42.000          26.0004
 114136846.342 8  88937778.09446  21719513.773    21719512.946    21719521.445
        49.500          39.2504
 103108168.989 8  80195239.772 8  19336024.269    19336025.036    19336041.438
        50.500          49.000
 121928494.083 6  95009215.54746  23202220.636    23202219.985    23202229.291
        41.750          28.5004
 125270582.372 7  97432673.430 6  23467403.155    23467404.537    23467424.641
        42.250          37.750
 126689279.586 7  98718918.93144  24108169.182    24108169.619    24108180.823
        42.250          28.7504
 127242715.588 6  99150165.29445  24213483.754    24213482.117    24213491.429
        41.500          30.5004
 119401039.678 7  92867474.801 7  22359976.944    22359977.939    22359997.396
        42.000          43.000
 113818009.466 7  88689356.24246  21658847.187    21658846.510    21658853.279
        47.500          40.0004
 115365464.642 8  89895167.75448  21953317.520    21953317.292    21953325.446
        48.500          43.2504
 126170570.878 7  98314734.78945  24009459.277    24009459.754    24009468.964
        43.000          31.2504
 118935255.637 6  92505209.166 6  22241470.170    22241491.890    22241513.529
        36.000          39.500
 120514212.778 6  93733279.751 5  22552596.722    22552593.218    22552613.433
        37.750          34.000
 115838782.409 7  90096828.917 7  21715773.512    21715773.377    21715790.561
        44.750          45.250
 109468392.068 8  85142042.992 8  20492704.462    20492703.781    20492722.977
        51.000          46.250
 126373974.357 6  98473225.74543  24048166.264    24048164.243    24048178.073
        38.000          20.5004
 124890105.339 7  97316968.95245  23765796.829    23765793.684    23765802.780
        42.000          31.2504
 110720026.405 8  86275345.28947  21069321.477    21069319.924    21069328.849
        51.000          43.7504
 12  3 25 12 16 40.0000000  0 21G05R02R19G26G13R03G29R18G04G23R13G02
                                G07G08R20R11R04R12G30G16G10
 112213007.774 8  87438713.36848  21353426.315    21353426.315    21353433.432
        49.000          43.0004
 114178207.568 7  88805274.640 7  21396948.028    21396949.110    21396967.083
        47.000          45.750
 113328457.657 7  88144358.862 7  21185560.909    21185560.364    21185576.759
        46.000          42.750
 129203110.155 6 100677747.79944  24586533.797    24586532.370    24586543.153
        39.250          24.2504
 114168919.259 7  88962769.85646  21725616.798    21725616.532    21725624.539
        47.750          38.5004
 103113651.560 8  80199503.890 8  19337052.365    19337053.316    19337069.633
        51.000          48.000
 121942029.533 7  95019762.47947  23204796.420    23204796.408    23204804.703
        44.000          36.0004
 125320635.962 6  97471603.809 6  23476783.094    23476781.583    23476800.710
        40.500          37.250
 126734001.950 6  98753767.36943  24116682.766    24116680.877    24116692.827
        37.750          22.5004
 127285009.802 6  99183121.65844  24221532.486    24221532.309    24221541.534
        40.750          29.5004
 119365468.359 6  92839808.206 6  22353316.818    22353316.257    22353336.298
        36.500          37.250
 113846114.001 7  88711255.71646  21664195.796    21664195.005    21664201.286
        47.750          39.2504
 115353994.182 7  89886229.64648  21951134.503    21951134.353    21951142.399
        47.750          41.5004
 126140693.112 5  98291453.37142  24003772.514    24003774.918    24003782.257
        33.250          17.7504
 118916051.108 6  92490272.174 7  22237900.442    22237902.184    22237922.537
        37.250          42.250
 120556773.628 6  93766382.490 6  22560559.381    22560558.143    22560577.932
        41.000          35.500
 115809290.744 7  90073890.853 7  21710244.886    21710244.281    21710261.986
        43.250          44.750
 109467923.366 8  85141678.358 8  20492616.080    20492616.287    20492635.210
        49.000          46.500
 126397600.094 7  98491635.33145  24052662.647    24052661.076    24052673.599
        42.000          30.0004
 124893255.110 7  97319423.26346  23766395.254    23766394.073    23766403.327
        44.500          36.5004
 110747859.705 8  86297033.45646  21074617.341    21074616.142    21074625.465
        48.000          41.2504
 12  3 25 12 16 50.0000000  0 21G05R02R19G26G13R03G29R18G04G23R13G02
                                G07G08R20R11R04R12G30G16G10
 112199945.794 8  87428535.19848  21350940.933    21350940.651    21350948.044
        48.250          42.5004
 114218646.220 7  88836726.908 8  21404527.405    21404527.141    21404545.261
        47.500          46.750
 113351505.464 7  88162284.926 7  21189869.865    21189869.356    21189885.134
        45.500          44.000
 129165534.746 6 100648468.30844  24579382.368    24579381.435    24579392.294
        40.000          24.7504
 114201121.295 8  88987862.34846  21731745.021    21731744.703    21731752.153
        49.250          39.0004
 103119218.307 8  80203833.571 8  19338097.010    19338097.133    19338113.298
        51.000          47.750
 121956162.059 7  95030774.84747  23207486.374    23207484.872    23207494.798
        43.250          36.2504
 125370368.876 6  97510284.927 6  23486097.604    23486097.019    23486119.525
        41.000          37.750
 126778006.918 6  98788056.91943  24125054.030    24125055.894    24125066.513
        38.250          22.7504
 127327531.630 6  99216255.50644  24229625.758    24229624.229    24229634.113
        41.500          29.5004
 119329289.963 6  92811669.488 6  22346541.142    22346541.433    22346560.023
        38.000          37.500
 113873833.498 8  88732855.30246  21669470.309    21669470.006    21669476.056
        48.750          40.2504
 115342232.834 8  89877064.95848  21948896.801    21948896.381    21948904.425
        49.500          42.5004
 126110139.493 5  98267645.39742  23997957.979    23997959.346    23997969.509
        34.250          17.2504
 118897688.591 6  92475990.214 7  22234466.613    22234467.950    22234488.774
        38.750          42.750
 120600089.635 6  93800072.715 6  22568665.466    22568664.615    22568683.019
        39.750          35.750
 115780085.661 7  90051175.820 7  21704768.029    21704769.468    21704787.302
        43.000          43.500
 109467558.039 8  85141394.219 8  20492547.077    20492547.587    20492567.127
        49.750          46.500
 126422074.751 6  98510706.48544  24057320.010    24057318.178    24057330.419
        41.250          29.7504
 124897071.041 7  97322396.71345  23767121.351    23767120.347    23767129.500
        44.250          35.2504
 110775404.627 8  86318497.02847  21079859.263    21079857.908    21079866.860
        49.000          42.0004
 12  3 25 12 17  0.0000000  0 21G05R02R19G26G13R03G29R18G04G23R13G02
                                G07G08R20R11R04R12G30G16G10
 112186942.255 8  87418402.56748  21348466.503    21348465.862    21348473.668
        48.250          42.5004
 114259060.198 8  88868159.973 8  21412101.101    21412101.182    21412119.163
        48.000          46.500
 113374727.587 7  88180346.567 7  21194210.896    21194210.359    21194226.788
        46.750          45.250
 129127778.180 6 100619047.64544  24572198.126    24572197.721    24572209.111
        39.750          25.0004
 114233435.574 8  89013042.29846  21737894.223    21737894.031    21737901.709
        49.500          39.5004
 103524007.639 8  80518669.702 8  19339157.163    19339155.337    19339171.769
        51.250          48.000
 121970563.860 7  95041996.99947  23210226.785    23210225.928    23210234.799
        44.250          37.0004
 125419947.251 6  97548845.838 6  23495385.273    23495385.402    23495406.747
        41.250          37.500
 126821711.889 6  98822112.71143  24133370.326    24133372.530    24133380.333
        38.500          22.7504
 127370197.680 6  99249501.72745  24237744.297    24237742.441    24237751.986
        41.250          30.0004
 119292894.669 6  92783362.061 6  22339724.210    22339725.784    22339744.587
        38.750          37.500
 113901404.554 8  88754339.23246  21674717.480    21674716.593    21674722.772
        48.750          40.5004
 115330407.913 8  89867850.73748  21946646.337    21946645.887    21946654.227
        49.750          42.7504
 126079322.733 5  98243632.36442  23992096.668    23992091.910    23992103.159
        34.500          17.0004
 118879727.452 6  92462020.440 7  22231107.885    22231108.698    22231130.352
        39.000          43.750
 120643779.548 6  93834053.733 6  22576840.842    22576839.949    22576861.069
        39.750          35.500
 115750993.866 7  90028548.890 7  21699313.479    21699315.544    21699332.806
        42.000          44.000
 109467321.840 8  85141210.510 8  20492503.664    20492503.412    20492522.344
        49.750          46.750
 126446960.845 6  98530098.26244  24062055.921    24062054.611    24062065.338
        41.750          28.5004
 124901237.811 7  97325643.55645  23767913.520    23767913.601    23767923.941
        45.250          35.7504
 110802867.937 8  86339897.00047  21085085.203    21085083.734    21085093.130
        49.250          42.7504
 12  3 25 12 17 10.0000000  0 21G05R02R19G26G13R03G29R18G04G23R13G02
                                G07G08R20R11R04R12G30G16G10
 112173999.798 8  87408317.54348  21346003.327    21346003.339    21346010.507
        48.000          43.2504
 114299477.458 8  88899595.606 8  21419673.187    21419674.974    21419693.366
        48.000          46.500
 113398098.731 7  88198524.116 7  21198578.503    21198578.992    21198595.730
        47.000          45.250
 129089916.256 6 100589544.89044  24564993.847    24564991.020    24565004.112
        40.750          26.2504
 114265846.741 8  89038297.74946  21744061.910    21744061.490    21744069.078
        49.750          39.2504
 103529752.803 8  80523138.157 8  19340228.759    19340228.693    19340244.963
        51.000          48.000
 121985169.042 7  95053377.64747  23213004.914    23213005.028    23213014.205
        44.250          37.0004
 125469440.349 6  97587340.411 6  23504656.253    23504657.482    23504679.151
        41.250          37.250
 126865234.505 6  98856026.38943  24141652.783    24141654.018    24141664.420
        38.750          23.0004
 127412970.823 7  99282831.37245  24245884.343    24245883.404    24245891.660
        42.500          30.7504
 119256382.250 6  92754963.554 6  22332889.568    22332888.123    22332907.235
        39.250          37.750
 113928904.263 8  88775767.56046  21679949.890    21679949.548    21679955.844
        48.750          40.7504
 115318572.529 8  89858628.36148  21944394.365    21944393.834    21944402.124
        49.250          42.7504
 126048351.700 5  98219499.14743  23986201.273    23986198.953    23986211.059
        35.250          18.7504
 118862059.343 6  92448278.579 7  22227808.756    22227804.943    22227825.608
        39.250          43.500
 120687739.456 6  93868244.742 6  22585066.671    22585067.072    22585087.476
        39.250          35.750
 116169740.065 7  90354240.380 7  21693877.294    21693879.045    21693897.171
        42.750          43.750
 109467212.469 8  85141125.446 8  20492482.654    20492483.215    20492502.309
        49.500          46.750
 126472143.999 7  98549721.46544  24066847.816    24066845.777    24066858.360
        42.750          28.7504
 124905664.863 7  97329093.20046  23768756.623    23768756.051    23768765.281
        46.000          36.2504
 110830301.685 8  86361273.94247  21090306.251    21090304.125    21090313.488
        49.250          42.7504
 12  3 25 12 17 20.0000000  0 21G05R02R19G26G13R03G29R18G04G23R13G02
                                G07G08R20R11R04R12G30G16G10
 112161127.634 8  87398287.28848  21343553.714    21343553.819    21343560.993
        48.250          43.5004
 114340003.529 8  88931115.854 8  21427268.971    21427269.550    21427287.457
        48.250          46.750
 113421524.450 7  88216744.120 7  21202959.014    21202958.148    21202974.534
        45.750          44.500
 129052226.589 6 100560176.33844  24557821.327    24557819.585    24557830.582
        39.250          24.7504
 114298292.610 8  89063580.21946  21750236.028    21750235.386    21750243.541
        50.000          39.2504
 103535592.450 8  80527680.098 8  19341320.513    19341319.767    19341335.710
        51.000          47.750
 121999727.560 7  95064721.99447  23215776.169    23215775.851    23215784.692
        43.000          36.0004
 125519103.857 6  97625967.508 6  23513960.141    23513961.421    23513980.536
        40.250          37.250
 126909014.784 6  98890140.85243  24149984.713    24149984.183    24149994.454
        38.500          22.7504
 127455705.171 6  99316130.85044  24254015.562    24254013.926    24254021.753
        41.500          29.0004
 119220121.586 6  92726760.852 6  22326099.140    22326096.262    22326117.098
        38.750          38.000
 113956624.323 8  88797367.59046  21685225.323    21685224.666    21685230.953
        48.250          40.5004
 115306919.167 8  89849547.82348  21942176.503    21942176.257    21942184.565
        48.750          43.0004
 126017629.636 5  98195559.88843  23980355.569    23980354.652    23980365.546
        35.250          18.5004
 118844270.816 6  92434443.077 7  22224475.580    22224478.479    22224499.695
        39.000          43.250
 120731570.653 6  93902335.649 6  22593270.692    22593269.589    22593288.395
        40.250          36.250
 116140634.532 7  90331602.724 7  21688445.553    21688445.082    21688461.915
        43.250          44.000
 109467213.257 8  85141126.062 8  20492483.776    20492483.164    20492502.783
        50.500          47.000
 126497187.184 7  98569235.61745  24071614.432    24071612.382    24071623.744
        42.750          30.0004
 124910003.501 7  97332473.96945  23769582.719    23769581.643    23769591.362
        45.250          35.0004
 110857903.034 8  86382781.47147  21095557.955    21095556.660    21095565.741
        49.250          42.2504
 12  3 25 12 17 30.0000000  0 21G05R02R19G26G13R03G29R18G04G23R13G02
                                G07G08R20R11R04R12G30G16G10
 112148328.044 8  87388313.59048  21341117.942    21341118.041    21341125.350
        49.000          44.2504
 114380636.426 8  88962719.193 8  21434882.663    21434884.344    21434902.242
        48.250          46.500
 113445009.863 7  88235010.563 7  21207349.100    21207348.491    21207365.780
        45.500          43.500
 129014706.138 6 100530939.65344  24550681.314    24550680.511    24550691.357
        40.250          26.2504
 114330773.769 8  89088890.21046  21756417.386    21756416.483    21756424.955
        48.500          38.2504
 103541527.895 8  80532296.559 8  19342428.316    19342428.145    19342444.642
        50.750          48.000
 122014247.138 7  95076035.88847  23218539.176    23218539.248    23218547.183
        43.750          36.2504
 125568936.683 6  97664726.307 6  23523295.136    23523296.536    23523315.809
        41.250          37.500
 126953045.726 6  98924450.65943  24158364.644    24158361.295    24158373.944
        37.750          21.7504
 127498402.990 7  99349401.86144  24262142.438    24262140.400    24262147.469
        42.250          29.2504
 119184105.469 6  92698748.325 6  22319351.477    22319353.678    22319371.704
        39.500          38.750
 113984561.721 8  88819136.99746  21690541.468    21690540.403    21690547.245
        48.000          40.2504
 115295443.552 8  89840605.80248  21939992.506    21939992.548    21940000.562
        49.000          42.5004
 125987149.188 6  98171808.90743  23974555.386    23974555.670    23974563.624
        37.250          20.2504
 118826371.868 6  92420521.718 7  22221130.223    22221131.353    22221151.649
        38.500          43.000
 120775280.542 6  93936332.198 6  22601450.598    22601449.039    22601468.466
        40.750          35.250
 116111539.575 7  90308973.303 7  21683011.754    21683011.062    21683028.267
        44.250          45.250
 109467323.267 8  85141211.634 8  20492503.835    20492503.289    20492522.908
        50.750          47.250
 126522099.133 7  98588647.50844  24076354.786    24076352.460    24076364.443
        43.500          29.2504
 124914260.031 7  97335790.73646  23770392.588    23770392.306    23770401.336
        45.250          36.5004
 110885669.015 8  86404417.29047  21100841.809    21100840.472    21100849.862
        48.750          42.0004
 12  3 25 12 17 40.0000000  0 21G05R02R19G26G13R03G29R18G04G23R13G02
                                G07G08R20R11R04R12G30G16G10
 112135561.913 8  87378365.97548  21338688.937    21338688.598    21338696.144
        49.500          43.5004
 114421534.263 7  88994528.670 7  21442549.612    21442548.793    21442566.403
        47.000          45.000
 113468412.667 7  88253212.709 7  21211724.697    21211723.557    21211740.301
        45.250          43.500
 128977534.473 6 100501974.84144  24543608.170    24543605.738    24543617.253
        36.250          24.5004
 114363293.291 8  89114230.11546  21762605.375    21762604.973    21762613.271
        48.250          37.2504
 103547571.032 8  80536996.806 8  19343556.803    19343557.181    19343573.939
        50.250          47.750
 122028452.668 7  95087105.20047  23221242.797    23221242.347    23221250.607
        44.000          37.2504
 125619097.451 6  97703740.278 6  23532692.532    23532692.721    23532715.340
        37.250          35.750
 126997712.060 7  98959255.55645  24166863.158    24166862.708    24166872.023
        44.000          31.7504
 127541011.627 6  99382603.40844  24270249.180    24270247.357    24270254.726
        41.750          28.2504
 119148693.554 7  92671205.702 7  22312722.530    22312721.501    22312740.454
        44.500          41.750
 114012943.108 7  88841252.41846  21695941.452    21695941.380    21695947.718
        47.500          41.2504
 115284360.262 7  89831969.52347  21937883.946    21937883.457    21937891.666
        46.250          39.5004
 125957289.369 7  98148541.52045  23968873.485    23968872.511    23968883.363
        45.250          33.7504
 118807990.019 6  92406224.830 7  22217694.316    22217693.123    22217713.884
        39.750          42.250
 120818547.119 6  93969983.989 6  22609547.054    22609546.230    22609565.644
        41.500          37.000
 116082310.838 7  90286239.947 7  21677551.553    21677553.139    21677569.691
        44.000          41.750
 109467577.998 8  85141409.782 7  20492550.587    20492551.055    20492570.521
        49.250          45.000
 126546507.735 7  98607667.27445  24081000.412    24080998.482    24081008.471
        42.750          31.2504
 124918171.017 7  97338838.28145  23771136.559    23771135.740    23771144.557
        42.750          34.0004
 110913803.084 8  86426340.00147  21106195.833    21106194.511    21106203.741
        48.750          42.7504
 12  3 25 12 17 50.0000000  0 21G05R02R19G26G13R03G29R18G04G23R13G02
                                G07G08R20R11R04R12G30G16G10
 112122651.372 8  87368305.77848  21336231.961    21336232.156    21336239.507
        50.250          44.0004
 114462889.740 7  89026693.994 7  21450298.599    21450298.857    21450316.755
        47.500          44.000
 113491524.663 7  88271188.754 7  21216044.946    21216044.319    21216060.466
        45.750          44.250
 128940432.043 5 100473063.91343  24536547.182    24536546.016    24536556.757
        35.750          19.5004
 114396052.577 7  89139756.84946  21768838.905    21768838.624    21768846.403
        46.250          36.0004
 103553703.219 8  80541766.272 8  19344702.751    19344702.880    19344719.105
        50.750          48.000
 122042177.656 7  95097799.98347  23223853.168    23223853.744    23223862.021
        43.000          37.0004
 125669300.587 6  97742787.046 6  23542099.078    23542097.909    23542117.548
        36.500          35.500
 127042920.628 7  98994482.99644  24175466.158    24175465.894    24175474.043
        42.750          28.7504
 127583802.706 6  99415947.02344  24278392.125    24278391.489    24278398.483
        38.750          27.0004
 119113937.368 7  92644173.168 7  22306212.770    22306213.169    22306231.546
        44.000          42.250
 114041599.844 7  88863582.32946  21701395.379    21701394.347    21701401.231
        46.750          39.5004
 115273788.395 7  89823731.71447  21935871.778    21935871.736    21935879.803
        45.500          39.0004
 125928059.171 7  98125764.72745  23963311.295    23963310.075    23963321.584
        45.750          35.5004
 118789144.387 6  92391567.120 7  22214171.827    22214170.355    22214190.036
        40.750          42.750
 120861525.757 6  94003411.761 6  22617589.077    22617589.248    22617608.393
        41.000          37.750
 116052716.349 7  90263221.933 7  21672026.534    21672026.372    21672043.050
        44.750          44.750
 109468149.576 8  85141854.363 7  20492659.367    20492658.399    20492677.442
        48.500          44.500
 126570516.118 7  98626375.08445  24085568.689    24085567.388    24085577.551
        43.750          32.0004
 124921934.309 6  97341770.63645  23771852.319    23771851.582    23771861.670
        40.250          32.0004
 110942361.814 8  86448593.53146  21111630.057    21111628.992    21111637.749
        48.750          41.7504
 12  3 25 12 18  0.0000000  0 21G05R02R19G26G13R03G29R18G04G23R13G02
                                G07G08R20R11R04R12G30G16G10
 112109880.349 8  87358354.35248  21333801.975    21333801.921    21333809.020
        48.750          42.7504
 114504101.399 7  89058747.455 7  21458021.967    21458021.987    21458039.438
        46.750          45.000
 113514933.126 7  88289395.332 7  21220419.418    21220419.925    21220436.054
        44.750          43.750
 128903201.850 5 100444053.37043  24529463.563    24529461.302    24529471.052
        35.750          20.2504
 114428847.158 7  89165311.02646  21775079.688    21775079.286    21775087.117
        46.250          38.2504
 103559917.425 8  80546599.526 8  19345864.012    19345863.787    19345879.949
        50.250          47.500
 122056318.557 7  95108818.82147  23226545.046    23226545.313    23226553.408
        44.750          37.0004
 125719410.412 6  97781761.316 5  23551484.965    23551486.050    23551506.071
        38.250          34.500
 127087749.767 6  99029414.78743  24183997.169    24183997.202    24184003.501
        40.000          23.0004
 127626651.966 7  99449336.05045  24286545.679    24286544.822    24286553.312
        42.500          30.5004
 119078837.929 7  92616873.581 7  22299641.167    22299640.348    22299659.382
        45.250          43.000
 114070104.972 7  88885794.10446  21706819.308    21706818.876    21706825.343
        45.500          38.5004
 115263043.480 7  89815359.01847  21933827.460    21933827.011    21933834.727
        47.500          40.7504
 125898449.806 7  98102692.48445  23957676.279    23957674.882    23957686.313
        43.750          31.2504
 118770806.422 6  92377304.279 7  22210740.531    22210739.842    22210761.094
        39.500          43.500
 120904915.419 6  94037159.227 6  22625708.242    22625708.845    22625728.043
        39.500          36.250
 116023368.720 7  90240396.018 7  21666546.376    21666545.741    21666563.131
        44.000          45.000
 109468773.587 8  85142339.684 7  20492775.983    20492774.970    20492794.166
        48.000          44.750
 126595008.568 7  98645460.08245  24090228.480    24090228.342    24090238.658
        42.000          31.5004
 124926052.544 6  97344979.71645  23772636.579    23772634.930    23772644.482
        40.750          30.2504
 110970757.555 8  86470720.06946  21117033.747    21117032.518    21117041.296
        48.250          41.5004
 12  3 25 12 18 10.0000000  0 19G05R02R19G13R03G29G04G23R13G02G07G08
                                R20R11R04R12G30G16G10
 112097324.989 7  87348570.88348  21331412.998    21331412.608    21331419.977
        46.750          41.7504
 114545232.673 7  89090738.338 7  21465730.740    21465730.188    21465748.041
        45.250          41.750
 113538576.616 7  88307784.606 7  21224841.222    21224840.209    21224857.051
        43.750          42.500
 114461480.957 7  89190739.88645  21781290.024    21781289.535    21781297.489
        42.500          35.5004
 103566228.605 8  80551508.146 8  19347042.796    19347042.829    19347059.030
        49.500          48.250
 122070562.202 7  95119917.65447  23229256.600    23229255.353    23229263.846
        43.250          36.2504
 127132885.995 6  99064585.74444  24192586.214    24192585.662    24192595.037
        41.000          28.7504
 127669212.554 5  99482501.22943  24294645.598    24294646.305    24294653.329
        33.250          18.7504
 119043907.977 6  92589705.789 7  22293099.297    22293099.033    22293117.845
        41.500          40.750
 114098957.032 8  88908276.15446  21712309.815    21712309.068    21712315.856
        48.000          40.7504
 115252343.648 7  89807021.39547  21931790.871    21931790.697    21931798.876
        44.250          38.7504
 125869045.045 7  98079779.64545  23952080.919    23952080.041    23952090.672
        43.000          34.5004
 118752338.104 6  92362939.915 7  22207283.804    22207287.036    22207307.143
        39.250          42.500
 120948036.139 7  94070697.525 6  22633778.598    22633779.081    22633796.682
        42.750          36.500
 115994218.844 6  90217723.941 6  21661101.713    21661101.758    21661119.794
        39.000          41.000
 109469330.297 8  85142772.615 7  20492880.146    20492879.553    20492899.021
        48.000          44.500
 126619271.935 6  98664366.49144  24094845.592    24094844.046    24094854.898
        40.250          28.0004
 124929903.676 7  97347980.46845  23773368.699    23773368.705    23773377.900
        42.250          32.2504
 110999248.381 7  86492920.60247  21122455.814    21122454.237    21122463.273
        47.250          42.0004
